[{"header": {"dx": 0.06612293990616946, "dy": 0.0552356325346848, "nx": 98, "ny": 59, "la1": 35.046912555036876, "la2": 31.78801023549047, "lo1": -121.43107172385933, "lo2": -114.95102361305473, "refTime": "2026041714", "parameterCategory": 1, "parameterNumber": 2}, "data": [0.0, -2.59, -5.8, -7.04, -6.87, -7.4, -8.28, -9.39, -12.16, -11.8, -11.17, -10.3, -11.09, -11.12, -11.45, -10.88, -10.88, -10.84, -11.46, -12.52, -12.96, -12.71, -9.97, -8.73, -7.9, -8.22, -8.53, -6.94, -8.53, -8.53, -0.0, -0.0, 12.52, 11.18, 10.28, 6.95, 4.2, -0.0, -0.0, -8.55, -9.64, -11.02, -11.62, -12.52, -15.43, -17.39, -15.8, -15.64, -10.66, -5.15, -5.31, -3.58, -8.43, -8.68, -11.06, -11.06, -11.06, -8.68, -7.0, 0.0, 0.0, 0.0, 10.75, 10.75, 15.2, 15.65, 15.61, 14.39, 13.8, 13.8, 14.39, 14.84, 14.84, 15.43, 15.65, 15.65, 14.75, 14.22, 14.31, 12.81, 11.9, 11.99, 11.6, 10.73, 10.35, 10.79, 11.71, 11.18, 11.18, 9.3, 6.87, 1.42, -1.23, -2.5, -2.09, -2.02, -1.9, -1.83, 0.0, 0.0, -2.59, -4.91, -4.79, -6.69, -7.2, -9.39, -10.75, -11.8, -9.8, -10.43, -9.48, -10.41, -11.6, -11.71, -10.18, -11.91, -11.91, -11.51, -13.41, -12.96, -12.71, -11.6, -8.58, -7.9, -8.22, -8.53, -10.04, -11.87, -14.3, -13.86, 12.52, 9.83, -8.05, -6.32, -3.6, -2.83, -5.21, -9.2, -12.27, -13.23, -12.96, -14.84, -17.57, -18.92, -18.02, -12.88, -7.69, -6.6, -7.59, -7.82, -7.82, -7.82, -9.49, -11.06, -11.06, -8.43, -7.0, 0.0, 0.0, 0.0, 0.0, 15.2, 15.2, 15.65, 15.61, 12.87, 11.38, 12.57, 12.92, 12.57, 15.27, 14.99, 15.2, 14.6, 14.6, 14.22, 14.31, 12.81, 11.9, 11.99, 11.6, 10.73, 10.35, 10.79, 11.71, 11.18, 11.18, 9.3, 6.87, 1.42, -1.23, -2.5, -2.09, -2.02, -1.9, -1.83, 3.59, 2.27, 0.0, -2.53, -4.91, -4.79, -5.23, -5.98, -9.12, -8.85, -8.94, -7.54, -8.31, -9.17, -11.62, -11.62, -11.62, -11.62, -12.07, -12.96, -11.51, -12.35, -12.52, -13.41, -13.15, -7.59, -7.59, -7.59, -9.3, -11.03, -14.75, -15.2, -14.3, -10.6, -7.6, -7.44, -6.79, -5.36, -5.9, -9.97, -12.0, -14.75, -16.96, -18.79, -17.88, -16.15, -12.33, -8.73, -8.57, -7.54, -7.54, -7.54, -5.99, -6.8, -9.22, -10.75, -12.16, -11.06, -7.0, -7.0, 0.0, 0.0, 15.2, 15.2, 15.2, 13.99, 11.06, 11.06, 8.05, 7.2, 8.93, 11.38, 13.99, 15.05, 14.75, 14.18, 13.2, 14.84, 13.07, 12.0, 10.99, 10.3, 9.96, 10.04, 9.97, 10.79, 11.18, 11.18, 11.02, 10.61, 11.06, 8.21, 3.16, 0.0, -3.58, -3.81, -3.73, -3.04, 5.27, 3.98, 2.27, 0.0, -2.53, -2.47, -2.4, -5.23, -5.81, -2.89, -4.52, -4.87, -5.31, -5.6, -8.53, -11.62, -11.62, -11.91, -11.51, -11.95, -11.18, -11.18, -11.18, -11.18, -12.07, -12.3, -9.2, -8.18, -6.95, -7.9, -10.8, -13.15, -15.34, -13.42, -9.77, -8.38, -7.27, -6.44, -7.51, -12.87, -16.54, -19.03, -18.66, -15.59, -12.37, -10.52, -9.02, -9.31, -8.57, -7.82, -7.82, -7.54, -8.18, -9.22, -11.52, -12.65, -12.16, -13.02, -7.0, 0.0, 0.0, 0.0, 14.75, 14.75, 14.75, 15.2, -0.0, 4.95, 4.23, 3.51, 6.31, 12.22, 14.38, 14.4, 14.3, 13.77, 13.19, 10.75, 12.16, 9.8, 8.05, 7.79, 7.54, 7.44, 6.71, 9.67, 12.07, 11.51, 10.0, 12.35, 12.64, 10.87, 11.06, 14.75, -9.48, -11.16, -5.11, -3.6, 6.26, 5.27, 3.98, 2.22, 0.0, 0.0, -2.47, -2.79, -2.57, 0.0, 0.0, -1.96, -5.31, -7.78, -8.53, -11.71, -11.4, -10.35, -9.97, -10.35, -10.79, -10.41, -9.67, -9.67, -9.6, -11.45, -10.41, -8.53, -5.0, -0.0, -0.0, -9.3, -10.88, -11.99, -13.57, -13.57, -14.11, -9.8, -7.2, -16.54, -16.48, -15.2, -13.15, -13.86, -13.86, -11.53, -11.9, -10.12, -10.43, -9.49, -10.43, -10.12, -11.17, -12.65, -13.7, -13.7, -13.59, -13.02, -7.0, 0.0, 0.0, 0.0, 14.3, -14.75, -14.75, -16.54, -16.99, -16.54, -18.33, 20.12, 19.67, 17.88, 18.33, 17.33, 15.65, 12.96, 13.59, 12.13, 11.09, 9.48, 8.54, 6.87, 4.9, 4.4, 4.15, 2.28, 7.54, 8.75, 11.63, 11.17, 10.46, 10.02, 10.43, 0.0, -12.96, -9.48, -4.1, -2.72, 7.05, 6.81, 5.8, 3.88, 2.22, 0.0, 0.0, 0.0, 0.0, 0.0, 2.5, 0.0, -6.4, -5.8, -8.85, -11.45, -10.04, -7.24, -7.24, -8.53, -8.22, -5.4, -0.0, -0.0, -0.0, -5.4, -8.53, -10.8, -12.96, -0.0, -0.0, -8.23, -9.63, -10.73, -12.01, -13.77, -13.41, -13.86, 15.2, 0.0, -9.77, -13.96, -13.86, -14.3, -14.3, -14.75, -14.75, 14.3, -14.3, -13.57, -11.09, -11.88, -11.88, -12.79, -13.99, -13.7, -13.19, -12.27, -10.75, -6.6, 0.0, 0.0, -14.75, -14.75, -13.39, -12.01, -7.8, -9.17, -8.74, -5.53, 0.0, 2.84, 10.17, 16.3, 16.75, 15.96, 12.94, 11.85, 10.55, 10.37, 8.53, 6.45, 3.97, 2.28, 2.52, 2.08, 4.38, 8.05, 9.84, 8.56, 5.98, 6.35, 4.95, -7.19, -10.37, -6.0, -3.14, -3.04, 8.2, 7.58, 6.81, 5.65, 4.34, 2.22, 0.0, 0.0, 0.0, 2.21, 2.15, 0.0, -6.4, -5.8, -9.48, -11.62, -5.4, -0.0, -5.6, -10.8, -12.07, 13.41, 13.86, -0.0, -0.0, -0.0, -11.62, -8.53, -8.85, -9.6, -6.2, -6.95, -8.8, -9.32, -11.11, -12.71, -11.87, -11.99, 5.2, 9.55, 3.96, -10.37, -12.27, -12.37, -11.06, -12.65, -14.39, 15.2, 13.86, -9.8, -12.79, -11.09, -12.79, -13.7, -13.57, -12.87, -11.9, -11.9, -11.9, -6.2, 0.0, -13.41, -15.2, -14.39, -11.7, -8.51, -4.12, -2.65, -4.95, -4.02, -1.58, 0.0, 0.0, 3.72, 7.6, 9.99, 12.45, 12.25, 12.25, 10.99, 9.02, 7.62, 4.97, 1.89, 1.01, 2.95, 4.66, 7.47, 6.47, 4.02, 2.52, 2.87, -4.95, -11.5, -8.38, -4.1, -2.72, -2.81, 7.49, 8.0, 7.4, 6.64, 5.65, 4.34, 2.16, 2.11, 2.05, 3.79, 1.89, 0.0, 0.0, 0.0, 13.86, 10.8, 8.85, 9.48, 11.6, 8.85, -0.0, -0.0, 12.96, 0.0, 0.0, 0.0, -5.4, -8.85, -11.03, -10.6, -8.94, -9.97, -10.38, -10.73, -10.75, -10.0, -9.58, -7.9, -3.04, 6.97, 8.94, -2.93, -10.02, -8.94, -9.71, -10.47, -12.02, -11.38, -10.43, -6.4, -8.85, -9.48, -13.15, -13.86, -13.15, -13.15, -12.39, -13.86, -11.99, -9.17, -12.52, -13.41, -15.2, -14.84, -13.39, -10.19, -4.12, 0.0, 0.0, 0.0, 0.0, 0.0, 0.0, 1.2, 2.31, 3.09, 5.92, 10.09, 11.12, 12.36, 12.4, 9.53, 7.32, 4.41, 1.65, 1.7, 4.03, 6.62, 3.98, 0.0, 0.0, -1.6, -8.59, -9.8, -6.65, -2.45, -1.2, -1.29, 8.48, 9.01, 8.56, 8.0, 7.26, 5.65, 6.12, 4.12, 4.01, 5.09, 3.3, 0.0, 0.0, 0.0, 9.48, 12.96, 12.72, 11.16, 10.79, 3.96, -0.0, -3.04, -4.1, 13.86, 0.0, 0.0, -5.46, -8.93, -12.07, -10.41, -11.28, -12.07, -12.52, -11.71, -9.58, -8.23, -7.59, -6.24, -3.19, 1.84, 8.85, 10.41, -3.96, -8.73, -9.5, -9.36, -11.38, -10.87, -8.28, -4.81, -6.6, -9.17, -13.41, -13.86, -13.86, -13.86, -13.86, -12.96, -12.52, -12.52, -12.52, -15.2, -15.2, -15.65, -16.09, -16.99, -12.33, 7.2, 8.18, 12.27, 15.61, 16.54, 16.31, 14.53, 10.43, 7.93, 5.63, 6.21, 8.78, 10.75, 12.8, 10.87, 9.16, 7.98, 5.36, 2.52, 0.97, 0.0, -14.39, -15.2, -7.19, -7.19, -8.54, -8.23, -6.0, -2.24, -1.09, -1.09, 8.65, 8.48, 8.0, 7.4, 8.0, 7.26, 7.08, 5.37, 5.09, 6.54, 4.5, 4.37, 0.0, -1.17, -2.81, 0.0, 13.86, 13.86, -0.0, -0.0, -8.85, -6.94, -5.8, -9.48, -11.99, -8.53, -6.95, -11.62, -13.41, -12.07, -12.52, -14.3, -13.86, -11.71, -9.97, -10.4, -7.59, -4.96, -4.58, 0.0, 3.82, 7.51, 10.8, -8.22, -7.72, -9.17, -9.89, -10.12, -8.97, -7.0, -6.6, -14.75, 14.3, 13.86, -13.86, -12.79, -11.53, -11.6, -12.52, -12.52, -14.75, -16.54, -17.43, -14.39, -13.39, -8.97, -5.65, -0.0, 3.36, 7.1, 10.43, 13.27, 14.71, 15.71, 15.65, 13.53, 10.73, 7.18, 6.79, 7.73, 10.19, 12.19, 13.6, 12.02, 10.25, 8.97, 8.05, 14.3, 8.94, 9.17, 12.96, -6.94, -5.6, -5.43, -4.81, -1.65, -0.92, -0.96, 8.65, 9.14, 9.01, 8.56, 8.0, 8.0, 6.47, 6.72, 6.72, 7.2, 5.81, 5.64, 2.98, 0.0, -5.81, -4.52, 0.0, 0.0, 0.0, -14.75, -13.99, -15.65, -14.75, -12.52, -12.96, -10.73, -10.28, 9.83, -10.28, -8.85, -11.45, -9.83, -9.83, -9.64, -9.04, -9.08, -6.97, -5.98, -6.16, -3.04, 0.0, 0.0, 8.22, 12.07, -9.3, -9.17, -10.04, -10.12, -9.69, -10.18, -12.65, -16.09, -16.09, -16.09, -15.78, -15.9, -14.18, -11.53, -7.9, 0.0, 0.0, 0.0, -11.7, -16.09, -14.94, -12.64, -10.66, -2.53, 1.89, 6.43, 9.02, 11.1, 12.7, 14.94, 14.95, 13.36, 10.73, 9.53, 8.94, 8.16, 7.2, 9.92, 10.87, 14.75, 14.17, 14.1, 15.02, 15.2, 14.25, 13.34, 12.52, 11.62, 2.45, -3.6, -4.0, -3.1, -1.61, -1.71, 9.43, 9.14, 9.92, 9.01, 8.56, 9.2, 7.8, 7.4, 8.51, 7.4, 6.66, 5.81, 4.95, 2.21, -2.5, -8.18, -5.8, 0.0, 0.0, 13.86, -14.3, -14.75, -14.3, -15.65, -13.41, -12.52, -12.07, -7.6, -10.73, -10.18, -9.3, -9.6, -10.73, -10.08, -10.14, -8.93, -6.87, -7.26, -6.76, -5.4, -3.96, -5.4, -8.22, 11.62, -10.73, -9.45, -11.3, -11.5, -11.6, -12.39, -13.07, -16.22, -18.68, -20.12, -19.13, -18.76, -19.34, -15.62, 12.07, 6.2, 0.0, 0.0, -12.33, -15.87, -16.09, -19.07, -19.99, -10.2, -0.0, 7.6, 8.57, 10.43, 11.64, 13.59, 12.58, 11.62, 11.28, 13.43, 12.22, 11.06, 9.23, 7.71, 9.42, 14.3, 16.53, 18.24, 16.91, 14.94, 14.47, 13.7, 12.35, 11.4, 10.88, 8.22, 0.0, -3.34, -3.34, -3.34, 8.97, 9.43, 9.14, 9.01, 9.6, 8.56, 8.35, 8.13, 7.92, 7.71, 7.2, 5.81, 4.95, 4.42, 0.0, -5.23, -7.0, -6.6, 0.0, 13.86, -14.3, -14.75, -15.2, -14.55, -14.11, -13.67, -13.23, -12.46, -11.95, -9.6, -10.38, -10.84, -10.73, -10.08, -10.28, -10.14, -9.89, -10.0, -9.3, -7.9, -8.22, -8.22, -10.0, -8.8, -9.2, -10.41, -11.18, -11.09, -11.6, -11.99, -11.39, -12.63, -13.35, -14.03, -15.91, -16.85, -19.91, -22.8, 11.38, 7.24, 4.42, -2.72, -14.95, -15.07, -17.22, -18.31, -21.56, -25.03, -24.59, -0.0, 15.8, 18.79, 13.39, 11.4, 9.83, 11.59, 14.42, 15.27, 13.58, 12.36, 11.38, 10.15, 9.16, 8.67, 12.01, 15.62, 17.59, 16.38, 14.94, 13.47, 13.25, 11.28, 10.7, 11.28, 10.73, 0.0, -2.81, -3.02, 9.67, 9.43, 10.18, 9.37, 9.92, 9.01, 9.36, 9.12, 9.12, 7.92, 7.2, 5.81, 5.81, 5.65, 7.4, 4.23, 0.0, 0.0, 0.0, -11.06, -15.2, -15.2, -15.2, -15.2, -15.53, -15.08, -15.08, -14.64, -13.86, -12.96, -10.47, -10.73, -11.18, -9.83, -9.83, -9.83, -9.83, -10.18, -9.75, -9.6, -8.93, -8.55, -7.59, -6.17, -6.95, -10.28, -9.39, -10.38, -10.79, -11.62, -11.87, -11.45, -10.8, -9.42, -9.5, -9.26, -13.02, -13.59, 0.0, 8.05, 3.98, -4.3, -10.59, -12.9, -12.8, -12.71, -14.33, -14.66, -13.4, 0.0, 21.19, 22.35, 18.19, 9.55, 10.4, 12.99, 14.56, 15.59, 14.57, 12.78, 12.78, 13.06, 11.06, 10.22, 7.36, 10.08, 13.65, 15.07, 14.67, 14.79, 13.47, 10.85, 11.03, 11.87, 11.99, 11.5, 7.78, 0.0, 9.67, 10.13, 9.67, 10.18, 9.37, 10.17, 9.92, 9.67, 9.42, 8.88, 6.66, 5.81, 5.98, 5.98, 7.4, 6.47, 4.23, 0.0, 0.0, -12.01, -14.79, -16.09, -15.65, -15.65, -15.65, -15.65, -15.2, -14.75, -14.3, -13.86, -12.52, -10.28, -11.18, -10.28, -10.28, -10.28, -10.52, -9.54, -10.96, -9.54, -9.97, -9.6, -6.95, -6.95, -8.8, -9.83, -6.95, -10.28, -10.73, -11.18, -11.62, -11.18, -9.6, -6.64, -6.95, -8.93, -8.82, -6.52, -1.22, 5.51, 4.1, -1.61, -6.73, -8.2, -9.22, -10.1, -10.99, -10.19, -9.35, -12.57, -9.2, 12.87, 16.45, 9.69, 9.48, 11.13, 12.33, 13.29, 14.13, 14.75, 15.59, 15.61, 14.3, 11.99, 10.94, 7.54, 8.65, 10.83, 11.38, 13.38, 15.19, 12.18, 10.8, 11.2, 11.99, 9.96, 8.3, 8.3, 9.67, 10.13, 9.67, 10.18, 10.18, 10.43, 10.18, 10.73, 9.42, 8.33, 7.71, 7.2, 5.98, 6.14, 6.9, 6.69, 5.51, 0.0, 0.0, -7.8, -15.59, -16.99, -16.54, -16.09, -15.65, -15.53, -15.11, -15.11, -15.11, -14.66, -14.3, -12.96, -10.28, -10.73, -10.28, -8.94, -10.28, -10.28, -10.73, -10.28, -9.39, -9.39, -10.28, -9.83, -9.83, -6.64, -6.95, -9.2, -7.27, -7.27, -11.18, -11.62, 11.62, 10.73, 9.39, 6.95, 0.0, -4.58, -3.88, 0.0, 2.37, 0.0, -3.68, -8.53, -8.53, -11.12, -9.69, -11.44, -14.39, -18.66, -11.04, 5.94, 11.89, 12.13, 8.83, 9.09, 9.69, 11.53, 15.91, 18.33, 17.39, 18.19, 16.99, 14.47, 11.34, 10.17, 8.38, 7.43, 8.1, 9.8, 12.22, 10.48, 10.62, 11.16, 11.12, 9.53, 8.24, 8.24, 10.31, 9.67, 10.39, 10.39, 9.67, 10.43, 10.43, 10.18, 9.67, 8.56, 7.2, 6.66, 5.65, 5.65, 6.31, 6.9, 6.69, 2.87, 0.0, -5.51, -15.59, -16.99, -16.99, -16.54, -16.09, -15.99, -15.99, -15.78, -15.78, -16.01, -15.57, -14.75, -12.96, -12.07, -8.94, -9.39, -9.83, -10.52, -10.28, -9.83, -9.83, -8.94, -10.28, -8.94, -9.83, -8.8, -10.28, -10.28, -7.27, -7.27, -0.0, 10.73, 11.18, 10.73, 10.73, 10.28, 9.2, 10.73, -5.4, -2.54, 0.0, 7.9, 10.73, -0.0, -4.8, -3.25, -11.62, -11.18, -12.66, -13.95, 0.0, 6.58, 8.87, 10.3, 7.61, 5.6, 4.66, 9.76, 15.74, 18.78, 17.88, 17.43, 16.76, 14.53, 13.35, 10.85, 10.55, 9.17, 8.23, 9.21, 11.42, 10.38, 9.3, 8.61, 10.09, 9.02, 7.82, 7.82, 9.88, 9.67, 10.39, 10.39, 10.39, 10.65, 9.91, 10.18, 9.92, 9.42, 7.4, 7.2, 6.84, 6.84, 7.03, 6.14, 7.08, 4.23, 0.0, 0.0, -11.7, -16.99, -16.54, -16.09, -16.01, -15.99, -16.44, -15.78, -15.83, -15.83, -15.39, -14.95, -14.07, -11.4, -10.52, -10.18, -9.83, -10.28, -9.83, -9.83, -9.33, -9.33, -9.83, -10.28, -10.28, -10.28, -10.73, -10.28, -10.28, -10.28, -0.0, -0.0, 10.28, 10.28, 10.28, 10.28, 7.27, 4.8, 3.53, 7.9, 12.07, 11.62, 10.73, 7.59, -0.0, -2.39, -0.0, -4.6, -11.84, -8.05, 0.0, 6.22, 7.06, 8.45, 4.23, 1.06, 0.0, 1.87, 9.76, 13.28, 13.12, 14.46, 14.3, 10.81, 10.55, 9.92, 9.96, 10.37, 8.83, 8.2, 8.94, 9.17, 8.22, 7.1, 8.78, 7.96, 7.36, 7.36, 9.88, 10.31, 9.67, 10.13, 10.39, 10.39, 10.65, 10.39, 10.18, 9.14, 8.33, 7.4, 6.36, 6.53, 6.36, 7.4, 6.14, 5.23, 2.28, 0.0, -7.4, -15.59, -16.31, -16.99, -15.65, -16.09, -12.88, -14.99, -15.43, -13.63, -13.88, -13.88, -13.01, -11.54, -10.68, -10.45, -10.25, -10.69, -11.06, -10.41, -9.54, -9.97, -11.18, -11.18, -11.62, -10.73, -10.73, -10.28, -9.2, -7.27, -0.0, -0.0, -0.0, -0.0, -0.0, -0.0, 7.27, 7.9, 10.8, 11.62, 11.62, 11.62, 11.18, -0.0, -3.11, -2.28, -0.0, -0.0, -0.0, 0.0, 8.0, 12.57, 14.52, 17.39, 2.59, 0.0, -1.6, -0.87, 1.13, 5.86, 8.74, 10.31, 9.66, 9.42, 9.66, 9.66, 10.76, 10.4, 9.06, 7.44, 7.68, 7.89, 8.38, 6.31, 5.73, 6.4, 6.98, 6.98, 9.88, 9.88, 10.31, 10.31, 10.57, 9.92, 10.39, 10.39, 9.67, 9.14, 8.05, 7.84, 6.93, 7.12, 6.1, 6.36, 5.65, 4.5, 0.0, 0.0, 0.0, -9.42, -16.66, -17.43, -15.93, -15.65, -14.75, -13.41, -13.8, -12.75, -12.35, -12.14, -11.76, -11.76, -11.33, -10.45, -10.7, -10.73, -10.68, -10.23, -10.66, -10.73, -11.18, -11.18, -11.18, -11.62, -10.28, -9.2, -9.2, -4.4, -4.4, -4.6, -4.8, -0.0, -0.0, 3.11, 7.9, 7.59, 10.73, 11.62, 11.18, 10.73, 10.73, -0.0, -2.49, -0.0, 2.49, 6.2, 5.4, 9.48, 15.9, 19.67, 24.14, 26.37, 18.79, 3.04, 0.0, -2.36, 0.87, 4.55, 6.54, 7.4, 8.25, 8.03, 8.39, 8.29, 8.41, 9.17, 8.87, 7.51, 6.76, 6.2, 7.66, 6.2, 4.38, 4.18, 4.96, 4.96, 9.88, 9.88, 10.31, 10.31, 10.31, 10.31, 9.92, 10.39, 9.67, 10.18, 8.9, 7.84, 6.93, 6.69, 6.69, 7.12, 5.94, 4.12, 1.47, 0.0, -4.23, -9.39, -14.94, -15.97, -15.78, -16.03, -14.75, -13.86, -12.96, -12.02, -11.46, -11.46, -11.46, -11.28, -11.46, -11.02, -11.14, -10.68, -10.73, -11.18, -11.18, -11.18, -11.18, -12.07, -11.62, -12.07, -9.83, -9.2, -9.2, -7.27, -4.4, -4.6, -4.8, -0.0, -0.0, 3.25, 5.0, 3.53, 11.62, 11.18, 11.18, 11.18, -0.0, -0.0, -0.0, -0.0, -0.0, 4.48, 4.81, 8.66, 13.58, 17.56, 23.25, 24.15, 14.93, 8.47, 0.0, -4.07, -2.61, 0.85, 4.44, 6.13, 6.94, 6.65, 7.44, 7.11, 11.16, 13.41, 12.25, 9.02, 7.82, 7.2, 6.6, 5.62, 4.38, 3.58, 3.58, 3.58, 9.23, 9.88, 9.88, 10.31, 10.31, 10.31, 10.31, 9.92, 9.67, 9.43, 8.43, 8.21, 7.4, 7.6, 7.6, 6.69, 6.1, 4.73, 2.88, 0.0, -5.65, -9.49, -13.99, -15.08, -15.99, -16.46, -16.09, -15.2, -13.86, -12.91, -11.88, -11.44, -11.46, -11.44, -11.44, -11.0, -11.57, -11.57, -11.11, -11.11, -11.11, -11.09, -11.09, -11.98, -11.06, -10.58, -10.73, -8.8, -9.2, -9.2, -4.6, -4.8, -4.8, -5.0, -0.0, -0.0, -0.0, -3.04, -8.22, -7.59, -0.0, -0.0, -0.0, 2.71, -0.0, -0.0, -0.0, -0.0, 2.54, 3.58, 7.0, 14.22, 22.99, 22.9, 3.21, 5.93, 6.81, -0.85, -5.03, -2.32, 1.82, 3.41, 4.15, 6.29, 7.58, 10.47, 12.45, 12.79, 11.8, 10.04, 8.93, 8.49, 8.41, 7.68, 5.5, 3.93, 4.05, 4.05, 9.8, 9.8, 9.62, 9.88, 10.46, 10.31, 10.31, 9.67, 9.67, 9.43, 9.19, 8.21, 7.4, 6.99, 7.18, 7.6, 6.69, 4.86, 4.01, 0.0, -4.54, -11.38, -13.19, -13.88, -14.31, -15.55, -16.09, -16.09, -15.2, -14.25, -13.36, -12.75, -11.88, -11.44, -11.4, -11.4, -11.35, -11.55, -11.53, -11.53, -11.53, -11.18, -11.18, -11.18, -11.03, -10.38, -10.18, -8.4, -8.4, -9.2, -9.2, -4.8, -4.8, -3.53, -0.0, -0.0, -2.19, -5.8, -5.8, -4.2, -0.0, -0.0, 2.82, 4.32, 2.19, 1.84, -0.0, -0.0, -0.0, -0.0, -0.0, -17.88, -18.65, 0.0, 0.0, 3.11, 8.3, 9.12, 0.0, -4.32, -1.53, 0.85, 0.92, 1.94, 4.34, 7.13, 8.66, 9.16, 9.89, 11.64, 11.17, 9.16, 9.06, 9.5, 7.93, 5.92, 4.81, 4.81, 9.8, 9.8, 9.23, 9.62, 10.46, 10.46, 10.31, 9.67, 9.67, 9.67, 8.74, 8.94, 7.78, 7.78, 7.99, 7.18, 6.69, 5.56, 4.86, 1.54, -2.11, -10.33, -13.02, -13.97, -13.88, -14.31, -15.11, -15.65, -15.65, -15.2, -14.23, -13.79, -12.9, -12.45, -11.55, -11.11, -11.09, -11.09, -11.28, -11.18, -11.18, -11.03, -11.03, -10.79, -9.97, -9.58, -11.87, -10.0, -9.6, -7.9, -8.22, -5.0, -4.8, -4.8, -3.25, -3.25, -2.49, -5.4, -5.8, -0.0, -0.0, -0.0, 3.53, 2.28, 1.84, 1.98, 1.98, 3.04, -0.0, -0.0, 11.18, -9.2, -25.93, -19.91, 0.0, 4.24, 8.73, 10.37, 11.33, 0.0, -3.42, -1.45, 0.0, 0.72, 1.56, 3.16, 5.72, 7.15, 8.4, 8.77, 10.36, 8.49, 9.27, 9.8, 9.5, 7.68, 6.57, 6.57, 9.8, 9.8, 9.8, 9.23, 10.19, 10.19, 9.88, 10.31, 9.67, 9.67, 9.42, 8.51, 8.51, 7.78, 7.78, 7.99, 6.99, 6.14, 5.56, 4.01, 0.0, -7.6, -12.92, -13.39, -13.97, -14.18, -14.64, -14.75, -15.2, -14.75, -14.75, -14.22, -13.33, -12.88, -12.42, -11.53, -11.09, -11.06, -10.75, -11.03, -11.03, -10.79, -10.38, -8.94, -8.94, -8.58, -9.3, -7.59, -6.95, -5.9, -6.44, -8.85, -7.59, -7.59, -7.27, -3.25, -5.7, -4.4, -5.2, -0.0, 5.0, 4.2, 3.11, -0.0, -0.0, -0.0, 1.98, 4.48, 5.4, 11.62, 12.72, 13.02, 21.9, 26.89, 26.89, 20.56, 17.64, 14.3, 13.57, 12.56, 1.38, -2.15, -0.72, 0.77, 1.74, 2.37, 3.99, 5.69, 5.25, 4.19, 4.67, 8.46, 9.5, 10.97, 9.48, 9.27, 8.15, 8.15, 9.54, 9.54, 9.54, 9.8, 9.8, 10.19, 10.19, 9.62, 9.88, 9.24, 9.0, 9.42, 8.51, 8.51, 7.4, 7.4, 6.63, 6.14, 5.23, 4.86, 1.69, -2.4, -10.61, -11.7, -13.02, -13.59, -14.18, -14.16, -14.3, -14.3, -14.3, -13.86, -13.31, -13.31, -12.39, -11.95, -11.46, -11.02, -10.6, -10.38, -10.38, -10.4, -8.94, -8.94, -7.59, -7.59, -8.22, -7.27, -5.9, -5.9, -6.71, -6.71, -8.85, -8.53, -7.9, -7.59, -5.7, -5.46, -7.27, -5.2, 5.4, 6.7, 2.28, -0.0, -0.0, -0.0, 2.45, 4.65, 10.79, 12.52, 11.45, 13.57, 16.76, 24.14, 26.99, 25.02, 21.74, 17.25, 11.8, 10.92, 12.72, 5.15, 0.0, -0.72, 0.0, 1.65, 3.09, 3.07, 2.72, 0.95, 1.06, 7.92, 10.75, 12.02, 10.22, 10.63, 9.27, 9.27, 9.54, 9.54, 9.54, 9.8, 9.8, 9.8, 10.19, 10.19, 9.62, 9.62, 9.62, 9.0, 8.77, 8.11, 8.11, 7.4, 7.4, 6.63, 6.14, 5.56, 2.72, 0.0, -5.23, -10.33, -12.57, -13.42, -14.11, -14.55, -14.11, -13.86, -13.41, -13.41, -12.71, -12.71, -12.14, -12.14, -12.14, -11.45, -10.04, -9.67, -7.9, -6.45, -6.45, -5.95, -5.7, -6.2, -6.2, -5.7, -5.46, -4.4, -6.44, -5.75, -6.42, -7.27, -7.9, -8.93, -8.93, -8.55, -7.51, -5.7, -0.0, 2.19, 2.71, 1.76, -0.0, -0.0, 2.37, 9.17, 11.6, 12.96, 12.58, 13.01, 13.7, 16.12, 20.12, 27.27, 23.02, 17.27, 10.94, 8.3, 10.4, 11.85, 7.36, 0.0, -1.41, 0.0, 2.3, 1.94, 0.0, 0.0, 0.0, 2.45, 9.14, 10.68, 10.75, 10.12, 10.12, 10.12, 9.17, 9.17, 9.54, 9.8, 9.8, 9.8, 10.19, 10.19, 10.19, 9.62, 9.62, 9.62, 9.0, 9.0, 8.33, 8.11, 8.11, 7.4, 6.63, 6.14, 4.86, 1.65, 0.0, -5.09, -8.28, -11.06, -12.16, -12.65, -13.99, -14.3, -13.86, -13.15, -12.72, -12.3, -11.2, -8.85, -8.85, -8.85, -8.53, -5.4, -5.2, -3.68, -0.0, -0.0, -0.0, -0.0, -0.0, -3.25, -5.46, -5.7, -7.9, -5.52, -5.95, -5.1, -5.95, -8.22, -7.9, -8.93, -8.23, -6.17, -2.71, -0.0, 2.19, 2.37, 2.28, -0.0, 6.0, 11.2, 12.07, 12.96, 14.3, 14.3, 12.72, 11.53, 9.49, 8.8, 11.35, 10.66, 9.8, 8.03, 9.16, 10.23, 12.18, 8.85, 1.77, 0.0, -0.74, -1.94, -1.2, 0.0, 0.87, 1.53, 6.3, 8.86, 10.43, 10.25, 9.89, 9.89, 9.17, 9.17, 9.54, 9.54, 9.8, 9.8, 10.32, 10.19, 10.19, 10.19, 9.62, 9.62, 9.62, 9.0, 9.0, 8.11, 8.11, 8.11, 7.4, 6.99, 5.56, 3.9, 1.78, 0.0, -2.57, 0.0, -3.69, -4.81, -10.43, -14.75, -14.3, -9.8, -9.8, -6.0, -5.8, -5.6, -5.6, -0.0, -0.0, -0.0, -0.0, -0.0, -0.0, -0.0, -0.0, -0.0, 2.28, 3.11, -0.0, -3.25, -3.53, -4.8, -3.82, -4.6, -4.23, -4.8, -3.82, -6.45, -7.59, -6.71, -5.0, -2.71, -0.0, -0.0, -0.0, 2.13, 4.38, 5.6, 0.0, 11.62, 13.86, 14.75, 13.86, 12.56, 9.42, 8.78, 6.44, 5.65, 7.87, 9.99, 9.36, 7.9, 10.66, 11.27, 11.85, 6.65, -2.2, -5.04, -1.68, 0.0, 1.6, 1.61, 1.43, 5.73, 8.51, 9.95, 10.43, 10.43, 9.17, 9.17, 9.54, 9.54, 9.8, 9.8, 10.32, 10.32, 10.19, 10.19, 10.19, 9.62, 9.62, 9.62, 9.0, 8.77, 8.77, 8.11, 7.4, 7.57, 7.2, 5.78, 6.47, 6.35, 4.3, 2.5, 0.0, 0.0, 0.0, 0.0, 14.3, -0.0, -0.0, -0.0, -0.0, -0.0, -0.0, -0.0, -0.0, -0.0, -0.0, 3.68, 3.68, 3.39, 3.53, -0.0, 5.0, 4.6, 2.49, -0.0, -0.0, -0.0, -2.02, -3.25, -3.39, -3.39, -1.62, -1.84, -5.2, -7.9, -7.59, -6.2, -0.0, -0.0, -1.98, -2.06, -0.0, -0.0, -0.0, 9.83, 7.59, 11.99, 15.61, 16.99, 15.69, 15.55, 13.91, 6.87, 5.27, 9.0, 12.36, 10.43, 9.96, 10.41, 10.55, 13.96, 13.72, 11.44, 2.43, 0.0, 0.82, 0.92, 0.82, 3.18, 5.81, 8.09, 8.74, 8.74, 9.17, 9.17, 9.17, 9.54, 9.54, 9.8, 10.32, 10.32, 10.05, 10.05, 10.19, 10.19, 9.62, 9.62, 9.62, 9.37, 8.53, 8.77, 8.11, 8.51, 7.57, 7.76, 7.88, 8.05, 8.06, 5.99, 5.48, 8.18, 10.12, 13.19, 14.75, 12.79, 12.79, 9.8, 9.48, 5.8, 5.6, 3.96, 3.96, 3.82, 3.82, 3.82, 3.68, 5.0, 2.6, -0.0, -0.0, 2.6, 2.49, -0.0, -0.0, -0.0, -0.0, -0.0, -2.1, -3.39, -1.69, -0.0, -1.76, -6.2, -9.3, -10.4, -8.53, -5.2, -7.24, -5.98, -4.32, -0.0, 5.4, 7.27, 2.97, 6.2, 13.42, 21.43, 20.96, 17.67, 15.11, 12.65, 10.33, 9.55, 12.56, 12.66, 11.77, 11.29, 11.35, 13.2, 13.67, 14.07, 12.42, 6.6, 4.05, 5.48, 5.64, 8.05, 4.19, 6.85, 8.33, 8.33, 8.93, 8.93, 9.17, 9.54, 9.54, 10.05, 10.05, 10.05, 10.05, 10.05, 10.05, 10.19, 10.19, 9.62, 9.62, 9.37, 9.12, 8.53, 8.77, 8.93, 9.09, 8.46, 9.39, 8.94, 9.33, 8.83, 8.18, 10.12, 13.99, 13.15, 14.3, 14.3, 13.57, 11.53, 11.53, 11.16, 7.19, 7.19, 6.94, 6.94, 6.7, 6.7, 6.45, 6.45, 5.0, 6.2, 3.53, 3.39, -0.0, -0.0, -0.0, -0.0, -0.0, -0.0, -0.0, -2.02, -2.19, -0.0, -0.0, -2.02, -8.53, -10.4, -0.0, -2.71, -5.2, -6.71, -7.27, -8.22, -0.0, 8.53, 5.7, 5.95, 12.39, 18.52, 28.72, 20.06, 13.57, 5.2, 11.53, 14.88, 15.25, 15.99, 16.48, 15.04, 14.65, 14.71, 13.74, 13.77, 13.57, 12.39, 11.88, 13.88, 14.75, 15.2, 9.49, 9.09, 10.6, 10.6, 8.93, 8.93, 8.93, 9.54, 10.05, 10.05, 10.05, 10.05, 10.05, 10.05, 10.05, 9.92, 10.19, 10.19, 10.19, 9.92, 9.37, 10.05, 9.52, 9.52, 9.09, 9.54, 9.73, 9.62, 10.1, 9.71, 11.2, 11.9, 11.88, 14.42, 13.41, 13.86, 13.59, 13.44, 12.39, 12.39, 11.99, 9.48, 9.17, 8.85, 8.85, 8.85, 6.7, 6.45, 6.2, 6.2, 3.53, 3.39, 3.39, 3.39, 3.25, -0.0, -0.0, -0.0, -0.0, -0.0, -0.0, -0.0, -0.0, -0.0, -2.6, -4.8, -0.0, -0.0, -2.71, -5.0, -5.95, -7.27, -0.0, 5.8, 7.24, 7.9, 11.62, 15.47, 28.07, 24.14, 18.33, 10.43, 12.39, 14.55, 16.09, 16.99, 17.88, 17.88, 16.99, 16.46, 15.41, 14.28, 13.57, 12.56, 11.12, 11.16, 13.86, 14.3, 14.3, 14.99, 14.42, 14.42, 8.93, 8.93, 9.42, 9.42, 10.05, 10.05, 10.05, 10.05, 10.05, 10.51, 10.05, 10.43, 9.92, 10.19, 9.92, 9.92, 10.54, 10.05, 10.05, 9.67, 9.67, 9.82, 10.27, 10.22, 10.97, 11.03, 11.44, 12.13, 13.56, 13.75, 13.23, 13.41, 13.41, 13.59, 13.59, 12.87, 12.87, 11.09, 10.73, 10.37, 10.37, 8.85, 8.85, 8.53, 9.67, 7.9, 7.9, 7.59, 4.8, 4.8, 3.39, 3.53, 3.39, -0.0, -0.0, -0.0, -0.0, -0.0, -0.0, -0.0, -0.0, -5.0, -0.0, -0.0, -3.25, -3.39, -7.59, -7.59, -0.0, -0.0, 6.94, 8.85, 12.52, 14.23, 22.48, 25.87, 21.68, 18.41, 17.02, 17.43, 16.99, 16.93, 16.93, 16.93, 16.93, 15.93, 15.74, 14.81, 14.03, 13.09, 12.04, 11.87, 11.2, 13.41, 13.41, 14.75, 15.05, 15.05, 9.42, 9.42, 9.42, 9.42, 9.78, 10.05, 10.05, 10.05, 10.51, 10.51, 10.89, 10.43, 10.43, 10.19, 10.33, 10.83, 10.54, 10.95, 10.95, 10.47, 10.61, 9.82, 10.27, 10.75, 11.42, 11.52, 12.27, 12.5, 13.57, 13.88, 14.19, 13.86, 13.41, 13.41, 13.23, 13.67, 13.15, 11.88, 11.5, 11.5, 11.5, 10.37, 10.01, 10.8, 10.04, 9.67, 7.9, 7.9, 7.9, 4.8, 4.8, 3.53, 3.39, 3.25, 3.39, 3.25, 3.11, 3.11, 2.39, -0.0, -2.39, -5.2, -4.8, -0.0, -0.0, -7.9, -9.6, -10.0, -7.9, -0.0, 3.96, 9.8, 14.03, 15.65, 19.4, 21.4, 20.38, 18.66, 19.37, 19.03, 17.43, 16.76, 15.09, 14.75, 15.18, 14.31, 14.31, 14.51, 13.33, 12.45, 12.44, 12.39, 12.14, 12.14, 12.71, 12.96, 14.75, 14.75, 9.16, 9.16, 9.42, 9.42, 9.78, 9.78, 10.05, 10.05, 10.51, 10.51, 10.89, 10.89, 10.43, 10.83, 10.83, 10.83, 10.95, 10.95, 10.95, 11.38, 10.61, 10.75, 11.2, 11.33, 11.8, 11.93, 12.56, 12.79, 13.7, 13.96, 14.22, 14.3, 13.86, 13.41, 13.41, 13.28, 12.72, 12.72, 11.99, 11.99, 11.5, 11.12, 12.04, 11.2, 10.8, 10.8, 9.67, 9.67, 7.9, 7.9, 4.8, 4.8, 3.39, 5.95, 3.25, 3.11, 3.11, 3.11, 2.39, -0.0, -0.0, -4.0, -4.8, -4.6, -0.0, -7.9, -9.2, -9.6, -5.0, -5.0, -0.0, 7.19, 13.99, 16.66, 19.16, 17.43, 17.43, 19.4, 21.39, 21.9, 20.12, 16.46, 13.88, 12.14, 12.72, 12.42, 12.66, 12.14, 12.42, 12.88, 12.91, 12.88, 12.79, 12.04, 11.62, 12.3, 13.86, 13.86, 9.16, 9.16, 9.42, 9.78, 9.78, 9.78, 10.05, 10.05, 10.51, 10.51, 10.89, 10.89, 11.29, 10.83, 10.83, 10.83, 10.95, 11.38, 11.38, 11.38, 11.5, 11.17, 11.6, 11.69, 11.8, 12.74, 12.79, 13.02, 13.8, 14.03, 14.23, 14.22, 14.3, 13.86, 13.86, 13.28, 13.28, 12.89, 12.89, 12.72, 12.72, 12.04, 11.62, 12.3, 10.38, 10.8, 11.71, 11.03, 11.03, 10.0, 7.9, 4.8, 4.8, 5.95, 5.46, 5.46, 3.11, 2.97, 2.39, 2.39, 2.39, -0.0, -4.6, -4.4, -0.0, -0.0, -6.95, -7.27, -4.8, -0.0, -0.0, 5.8, 11.06, 16.79, 19.75, 17.79, 13.75, 16.12, 21.2, 21.2, 18.84, 17.02, 14.75, 11.92, 11.45, 12.79, 13.41, 12.96, 12.96, 12.96, 12.9, 13.36, 13.33, 12.72, 11.12, 11.12, 11.99, 13.28, 9.16, 9.16, 9.16, 9.78, 9.78, 9.78, 10.23, 10.23, 10.51, 10.89, 10.89, 10.6, 10.98, 10.98, 11.29, 10.95, 10.95, 11.38, 11.79, 12.22, 11.88, 11.94, 12.05, 12.13, 12.56, 12.6, 12.79, 13.2, 13.57, 13.8, 14.07, 14.23, 14.23, 14.3, 13.86, 13.75, 13.31, 13.31, 13.28, 13.28, 12.72, 12.3, 11.62, 12.3, 10.38, 11.21, 11.84, 11.71, 11.28, 10.6, 10.0, 7.59, 4.8, 7.27, 5.46, 5.46, 5.21, 2.97, 2.28, 2.39, 2.39, -0.0, -0.0, -0.0, -0.0, -0.0, -0.0, -3.25, -3.39, -0.0, -0.0, -0.0, 6.6, 12.33, 20.7, 20.39, 14.18, 14.99, 17.19, 17.25, 14.85, 13.89, 14.42, 14.31, 13.86, 13.41, 13.67, 13.67, 13.41, 13.41, 13.41, 13.36, 13.34, 13.01, 11.99, 10.12, 11.16, 11.99, 9.16, 9.16, 9.5, 9.5, 10.23, 10.23, 10.23, 10.6, 10.6, 10.6, 10.6, 10.98, 11.29, 11.29, 11.7, 11.7, 11.7, 11.79, 12.22, 11.88, 12.3, 11.95, 12.05, 12.13, 12.56, 12.6, 12.99, 13.2, 13.57, 13.88, 14.07, 14.25, 14.23, 14.3, 14.3, 14.3, 13.86, 13.41, 13.31, 13.28, 13.23, 12.79, 12.04, 11.45, 12.3, 11.03, 11.84, 11.84, 11.4, 10.84, 10.6, 10.18, 7.59, 7.27, 8.18, 8.18, 6.64, 4.96, 5.21, 4.2, 4.4, 2.28, 2.4, -0.0, -0.0, -0.0, -0.0, -3.25, -5.95, -0.0, -0.0, -0.0, -0.0, 7.0, 13.91, 18.97, 18.54, 14.39, 14.3, 11.09, 10.47, 11.99, 13.01, 13.41, 13.75, 14.19, 14.22, 14.75, 14.3, 13.86, 13.79, 13.8, 13.8, 13.53, 12.89, 11.5, 10.12, 11.16, 9.5, 9.5, 9.5, 9.95, 9.95, 9.95, 10.6, 10.6, 10.6, 10.6, 10.98, 11.29, 11.29, 11.7, 11.7, 11.7, 12.12, 11.79, 12.22, 11.88, 11.95, 12.37, 12.0, 12.13, 12.56, 12.6, 12.99, 13.35, 13.57, 13.88, 14.11, 13.81, 14.25, 14.3, 14.3, 14.3, 13.86, 13.86, 13.86, 13.86, 13.41, 12.79, 12.79, 12.35, 11.87, 12.72, 11.03, 10.6, 10.18, 10.18, 9.96, 9.2, 9.2, 9.2, 8.8, 7.81, 7.81, 6.32, 6.32, 6.64, 5.63, 4.2, 4.8, -0.0, -0.0, -0.0, -0.0, -4.8, -4.6, -2.71, -0.0, -0.0, -0.0, -0.0, -0.0, 11.41, 21.49, 24.39, 17.88, 13.86, 14.75, 14.75, 14.84, 15.87, 15.87, 15.14, 14.75, 14.75, 14.75, 14.26, 14.11, 14.14, 13.67, 13.59, 13.09, 12.14, 10.79, 10.79, 9.5, 9.5, 9.5, 9.95, 9.95, 10.3, 10.6, 10.6, 10.6, 10.98, 11.29, 11.29, 11.29, 11.7, 11.7, 12.5, 12.5, 12.16, 12.57, 12.3, 11.95, 12.37, 12.41, 12.41, 12.81, 12.99, 12.99, 13.35, 13.67, 13.94, 14.14, 14.26, 14.26, 14.25, 13.86, 14.3, 14.3, 14.3, 14.3, 13.86, 13.86, 13.41, 12.79, 12.79, 12.79, 12.83, 11.45, 10.18, 9.75, 9.75, 9.2, 8.8, 8.43, 8.43, 8.72, 8.4, 7.15, 6.32, 6.32, 6.32, 5.63, 6.32, 4.71, -0.0, -0.0, -0.0, -0.0, -0.0, -2.49, -2.71, -0.0, -0.0, -5.8, -5.6, -14.75, 16.09, 21.9, 31.74, 26.72, 18.2, 14.82, 14.88, 16.61, 17.49, 16.85, 16.35, 14.75, 14.23, 14.51, 14.11, 14.14, 14.14, 13.67, 13.19, 12.42, 11.85, 11.85, 11.85, 9.23, 9.23, 9.5, 9.95, 10.3, 10.3, 10.6, 10.6, 10.98, 10.98, 11.29, 11.29, 11.7, 11.7, 11.7, 12.5, 12.16, 12.57, 12.57, 12.26, 12.65, 12.65, 12.41, 12.81, 13.19, 13.19, 13.15, 13.47, 13.67, 13.94, 13.94, 14.14, 14.11, 14.26, 13.8, 14.25, 14.23, 14.3, 14.3, 14.3, 13.86, 13.41, 13.41, 12.96, 12.83, 12.83, 12.35, 11.03, 10.18, 9.75, 8.8, 8.8, 8.91, 8.72, 8.72, 8.3, 8.0, 6.79, 6.79, 7.15, 7.15, 7.15, 6.32, 4.8, -0.0, -0.0, -0.0, -0.0, -2.49, -2.71, -2.71, -4.8, -6.45, -5.8, 13.41, 10.75, 17.53, 23.69, 28.99, 21.81, 18.98, 19.72, 21.1, 20.41, 18.87, 16.66, 15.6, 14.75, 13.96, 13.7, 13.63, 13.63, 13.63, 12.94, 12.3, 12.18, 12.18, 12.18, 9.23, 9.23, 9.66, 9.95, 10.3, 10.3, 10.7, 11.06, 11.38, 11.38, 10.98, 11.38, 11.7, 11.38, 11.38, 11.79, 12.16, 12.22, 12.22, 12.65, 12.27, 12.65, 13.02, 13.02, 13.37, 13.28, 13.15, 13.47, 13.75, 13.75, 13.94, 13.94, 14.11, 14.11, 14.07, 14.25, 14.23, 14.22, 14.3, 14.3, 13.86, 13.86, 13.41, 12.96, 12.96, 12.52, 12.35, 11.91, 11.46, 11.02, 9.75, 9.33, 9.7, 9.21, 9.21, 7.89, 7.6, 7.2, 7.2, 6.79, 6.79, 7.15, 7.15, 6.01, 7.59, -0.0, -0.0, -2.97, -4.6, -4.8, -5.2, -5.7, -7.9, -8.85, 13.41, 14.3, 16.09, 18.19, 21.17, 21.33, 21.02, 23.19, 22.94, 22.23, 19.3, 17.28, 16.66, 16.04, 14.84, 12.74, 13.57, 11.87, 12.42, 12.18, 12.3, 11.76, 11.76, 11.76, 9.23, 9.23, 9.66, 10.01, 10.3, 10.4, 11.06, 11.06, 11.06, 11.38, 11.76, 11.76, 11.38, 11.38, 11.79, 11.47, 11.82, 12.22, 11.87, 12.26, 12.65, 12.65, 13.02, 13.02, 12.96, 12.96, 13.28, 13.47, 13.47, 13.75, 13.67, 13.94, 13.88, 14.11, 14.07, 14.07, 14.23, 14.23, 14.3, 14.3, 13.86, 13.41, 13.41, 12.96, 12.96, 12.52, 12.07, 12.07, 11.62, 11.62, 11.02, 10.58, 10.14, 9.64, 9.64, 8.77, 8.3, 7.6, 7.2, 7.2, 6.79, 6.79, 7.15, 7.51, 4.96, -0.0, -0.0, -0.0, -5.46, -6.17, -5.7, -7.59, -10.4, -8.85, 13.41, 13.86, 15.2, 15.93, 15.99, 15.17, 18.85, 25.1, 26.21, 21.25, 19.81, 18.65, 18.19, 17.26, 15.65, 12.27, 12.45, 11.61, 11.87, 11.62, 11.62, 11.21, 11.21, 11.21, 9.66, 9.66, 10.01, 10.01, 10.01, 10.75, 10.75, 11.06, 11.06, 11.44, 11.44, 11.44, 11.44, 11.82, 11.82, 11.82, 11.82, 11.87, 11.87, 12.26, 12.65, 12.65, 12.27, 12.62, 12.96, 12.96, 13.28, 13.15, 13.47, 13.35, 13.67, 13.67, 13.88, 13.88, 14.11, 14.07, 14.25, 14.23, 14.23, 13.86, 13.86, 13.41, 13.41, 12.96, 12.96, 12.52, 12.07, 12.07, 11.62, 11.62, 11.18, 10.73, 10.73, 10.14, 9.64, 9.64, 8.3, 7.89, 7.2, 7.2, 7.2, 6.79, 6.79, 7.15, 6.32, 6.95, -0.0, -0.0, -4.4, -6.95, -7.27, -7.9, -8.22, 12.52, 12.96, 13.41, 13.57, 14.11, 13.39, 11.7, 13.28, 21.57, 25.99, 23.31, 21.03, 19.52, 17.84, 15.57, 14.75, 11.6, 11.87, 12.27, 11.45, 11.09, 10.8, 11.09, 11.09, 11.09, 9.66, 9.66, 10.01, 9.71, 10.01, 10.75, 10.75, 10.75, 11.11, 11.44, 11.44, 11.44, 11.82, 11.82, 11.82, 11.49, 11.87, 11.87, 11.87, 12.26, 11.9, 12.65, 12.27, 12.62, 12.62, 12.96, 12.79, 13.15, 13.15, 13.35, 13.35, 13.67, 13.88, 13.88, 14.11, 14.11, 14.25, 14.25, 13.79, 13.79, 13.41, 13.41, 12.96, 12.96, 12.96, 12.52, 12.07, 12.07, 11.62, 11.62, 11.18, 11.18, 10.73, 10.73, 10.14, 9.64, 9.21, 8.3, 7.89, 7.2, 6.8, 7.2, 7.6, 7.15, 6.32, 4.6, -0.0, -0.0, -0.0, -5.46, -5.7, -4.8, -0.0, -0.0, -0.0, 9.48, 9.8, 10.12, 10.43, 8.68, 9.61, 14.22, 20.26, 22.14, 24.57, 21.27, 16.99, 12.96, 12.96, 12.52, 11.87, 11.45, 11.28, 10.0, 9.58, 9.96, 9.96, 9.96, 9.71, 9.71, 9.71, 9.71, 9.71, 10.43, 10.43, 10.75, 11.11, 11.11, 11.11, 11.49, 11.49, 11.49, 11.49, 11.49, 11.87, 11.87, 11.87, 11.9, 11.9, 11.9, 12.27, 12.62, 12.62, 12.79, 12.79, 13.15, 13.15, 13.35, 13.35, 14.1, 14.37, 14.31, 14.11, 14.11, 14.11, 13.8, 13.8, 13.34, 13.34, 12.88, 12.96, 12.96, 12.52, 12.52, 12.07, 12.07, 11.62, 11.62, 11.18, 11.18, 11.18, 10.73, 10.28, 10.08, 9.64, 9.21, 8.33, 7.47, 7.2, 6.8, 7.2, 6.79, 6.01, 4.0, -0.0, -0.0, -0.0, -0.0, -3.11, -7.27, -0.0, -0.0, -0.0, -0.0, 6.0, 7.44, 6.4, 4.66, 7.0, 9.61, 12.35, 19.55, 26.65, 22.35, 13.41, 10.28, 10.4, 12.52, 12.07, 11.03, 10.18, 10.18, 9.2, 8.8, 8.8, 8.8, 9.71, 9.71, 9.71, 9.71, 10.43, 10.43, 10.43, 10.78, 10.78, 11.11, 11.49, 11.49, 11.49, 11.49, 11.49, 12.22, 11.87, 11.87, 11.9, 11.9, 11.9, 11.9, 12.27, 12.62, 12.62, 12.79, 12.79, 13.15, 13.15, 13.47, 13.77, 14.1, 14.1, 14.37, 13.94, 14.11, 14.11, 13.67, 13.8, 13.36, 13.34, 12.88, 12.88, 12.44, 12.44, 12.42, 12.07, 12.07, 11.62, 11.62, 11.62, 11.18, 11.18, 10.73, 10.73, 10.28, 9.64, 9.21, 8.77, 8.33, 7.2, 6.8, 6.8, 7.2, 5.69, 4.0, -0.0, -0.0, -0.0, -0.0, -0.0, -9.83, -9.83, -0.0, -0.0, -0.0, -0.0, -0.0, -0.0, 2.89, 5.48, 4.66, 8.68, 17.16, 27.27, 19.2, 10.75, -10.73, 10.73, 11.18, 11.62, 11.03, 7.9, 7.59, 9.75, 9.33, 9.33, 9.33, 9.71, 9.42, 9.42, 10.12, 10.12, 10.12, 10.12, 10.78, 10.78, 10.78, 11.15, 11.45, 11.8, 12.14, 12.52, 11.87, 11.87, 11.9, 11.9, 11.54, 11.9, 11.9, 12.27, 12.62, 12.62, 12.96, 12.96, 13.15, 13.56, 13.89, 13.89, 14.18, 14.1, 14.37, 13.94, 13.88, 14.11, 13.67, 13.63, 13.19, 13.34, 12.9, 12.88, 12.44, 12.44, 11.98, 11.98, 12.07, 11.62, 11.62, 11.62, 11.62, 11.18, 10.73, 10.73, 10.28, 9.83, 9.39, 8.77, 8.77, 8.33, 7.81, 6.8, 6.8, 6.32, 5.06, -0.0, -0.0, -0.0, -0.0, -0.0, 10.73, -10.28, -6.95, 11.18, 11.62, -0.0, -0.0, -0.0, -0.0, -0.0, 5.31, 8.58, 16.86, 26.85, 21.55, 17.43, -12.07, 0.0, 10.84, 10.96, 10.0, 6.45, 5.0, 7.59, 8.8, 8.8, 8.8, 9.78, 9.78, 9.78, 10.12, 10.12, 10.12, 10.12, 10.46, 10.46, 10.78, 11.44, 11.8, 12.14, 11.8, 12.16, 12.16, 11.52, 11.9, 11.54, 11.9, 11.9, 11.9, 12.27, 12.62, 12.62, 12.96, 12.96, 13.7, 13.56, 13.89, 13.89, 14.18, 14.1, 14.1, 13.94, 13.94, 13.44, 13.67, 13.19, 13.19, 12.71, 12.71, 12.27, 12.44, 12.44, 11.98, 11.98, 11.98, 12.07, 11.62, 11.62, 11.62, 11.62, 11.18, 10.73, 10.28, 9.83, 9.39, 8.94, 8.77, 8.33, 7.81, 7.81, 7.37, 6.32, 5.37, 6.64, 9.39, -9.83, -9.39, 9.83, 10.28, 10.73, -10.28, 0.0, 11.18, 12.07, -0.0, -5.8, -4.1, -0.0, 2.72, 8.85, 27.27, 27.67, 23.25, 12.96, -0.0, 5.4, 8.53, 10.4, 11.12, 6.45, 0.0, 0.0, 0.0, 0.0, 0.0, 9.48, 9.48, 9.8, 9.8, 10.12, 10.12, 10.12, 10.46, 10.78, 11.11, 11.8, 11.8, 11.8, 11.8, 12.16, 11.8, 11.8, 12.16, 11.79, 12.13, 12.13, 12.13, 12.27, 12.62, 12.62, 13.37, 13.37, 13.7, 13.7, 13.56, 13.89, 13.89, 14.18, 13.67, 13.67, 13.94, 13.44, 13.44, 13.19, 13.19, 12.75, 12.71, 12.27, 12.22, 12.44, 11.98, 11.98, 11.98, 11.98, 11.98, 11.95, 12.07, 11.62, 11.18, 10.73, 10.28, 9.83, 9.39, 8.94, 8.94, 8.49, 7.81, 7.37, 7.37, 7.21, 7.21, 6.8, 7.6, -7.27, -9.2, -7.27, -7.27, -10.28, -10.28, 10.28, 10.73, 11.62, -0.0, -5.6, -3.96, -3.14, -0.0, 16.85, 26.02, 26.46, 19.59, -4.23, -0.0, 8.53, 5.2, 7.9, 8.94, 0.0, -7.9, 0.0, 0.0, 0.0, 0.0, 9.48, 9.48, 9.8, 9.8, 9.8, 10.12, 10.46, 10.78, 10.78, 11.1, 11.45, 11.8, 11.45, 11.45, 11.8, 11.8, 11.8, 12.16, 12.16, 11.79, 12.51, 12.51, 12.86, 13.02, 13.02, 13.02, 13.77, 13.77, 13.7, 13.56, 13.56, 13.89, 13.47, 13.67, 13.67, 13.25, 13.44, 13.44, 12.94, 12.94, 12.75, 12.71, 12.27, 12.22, 12.22, 12.0, 11.98, 11.98, 11.98, 11.98, 11.98, 11.95, 11.62, 11.18, 10.73, 10.28, 9.83, 9.39, 8.94, 8.94, 8.49, 8.05, 7.6, 7.6, 8.05, 8.05, 8.05, 8.05, -7.27, -9.6, -7.59, -4.8, -7.59, -10.28, -9.83, 9.83, 10.73, -8.22, -8.85, -8.85, -6.94, -4.24, 15.62, 22.9, 26.74, 9.2, -6.14, -2.37, -0.0, 6.2, 5.75, 3.68, -11.62, -11.18, -5.0, -4.4, -4.4, -4.4, 9.48, 9.48, 9.8, 9.8, 10.12, 10.12, 10.46, 10.46, 11.1, 11.1, 11.45, 11.45, 11.45, 11.8, 11.8, 11.8, 11.8, 12.16, 12.16, 12.16, 12.51, 12.51, 12.86, 13.25, 13.41, 13.41, 13.41, 13.37, 13.37, 13.56, 13.56, 13.47, 13.47, 13.35, 13.67, 13.25, 13.15, 13.01, 12.94, 12.51, 12.51, 12.71, 12.27, 12.22, 12.22, 11.78, 12.0, 12.0, 11.98, 11.98, 11.98, 11.98, 11.51, 11.18, 10.73, 10.28, 9.83, 9.39, 9.39, 8.94, 8.49, 8.05, 8.05, 8.05, 8.05, 8.05, 8.49, 8.49, 6.01, 0.0, -9.6, -9.6, -9.6, -7.27, -7.27, 0.0, -10.28, -10.0, -10.4, -10.8, -11.87, 14.3, 17.88, 19.93, 27.14, 17.39, -12.64, -5.63, -2.19, -7.9, -6.45, -11.03, -11.62, -11.62, -5.0, -7.27, -7.27, -7.27, 9.48, 9.48, 9.8, 9.8, 9.8, 10.11, 10.43, 10.77, 10.77, 10.77, 11.1, 11.1, 11.45, 11.8, 11.8, 11.8, 11.8, 12.52, 12.52, 12.52, 12.89, 12.89, 13.25, 13.25, 13.41, 13.41, 13.41, 13.37, 13.37, 13.56, 13.15, 13.15, 13.35, 13.35, 12.93, 13.15, 13.15, 12.72, 12.94, 12.51, 12.51, 12.42, 12.27, 12.27, 12.22, 12.22, 11.78, 12.0, 12.0, 12.0, 11.98, 11.53, 11.09, 11.18, 10.73, 10.28, 9.83, 9.83, 9.39, 8.94, 8.94, 8.49, 8.05, 8.05, 8.05, 8.49, 8.49, 8.49, 8.06, 0.0, -7.27, -9.6, -7.27, -6.95, 0.0, 0.0, 0.0, -10.28, -10.73, -11.62, -12.96, -9.8, 4.95, 13.59, 20.25, 16.63, -19.22, -10.61, -7.19, -10.84, -11.46, -11.46, -12.07, -8.22, -7.9, -9.3, -9.3, -9.3, 9.48, 9.48, 9.8, 9.8, 10.11, 10.11, 10.43, 10.43, 10.43, 11.1, 11.1, 11.45, 11.45, 11.8, 12.16, 12.16, 12.52, 12.52, 12.52, 12.52, 12.89, 12.89, 13.25, 13.25, 13.02, 13.41, 13.02, 13.37, 12.79, 12.79, 13.15, 13.15, 12.99, 12.93, 12.93, 12.79, 12.72, 12.72, 12.6, 12.51, 12.51, 12.51, 11.99, 12.27, 12.27, 12.27, 11.78, 12.0, 12.0, 12.0, 12.0, 11.53, 11.09, 11.18, 10.73, 10.28, 9.83, 9.83, 9.39, 8.94, 8.94, 8.49, 8.05, 8.49, 8.49, 8.49, 8.94, 8.94, 8.94, 9.2, 0.0, 0.0, -4.4, 0.0, 0.0, 9.39, 9.39, 9.39, 10.28, 11.62, -12.52, -9.48, 4.66, 12.33, 20.57, 22.55, 11.65, -18.33, -12.87, -11.53, -12.96, -12.3, -10.37, -7.19, -10.41, -10.41, -10.41, -10.41, 9.48, 9.48, 9.48, 9.8, 10.11, 10.43, 10.43, 10.43, 10.43, 11.1, 11.1, 11.45, 11.45, 12.16, 12.16, 12.16, 12.52, 12.52, 12.52, 12.52, 12.89, 12.51, 12.89, 13.25, 13.02, 13.02, 13.02, 12.62, 12.79, 12.79, 12.79, 12.99, 12.99, 12.58, 12.93, 12.38, 12.38, 12.72, 12.18, 12.18, 12.51, 12.51, 12.42, 12.27, 12.27, 12.27, 11.84, 11.84, 12.0, 12.0, 11.55, 11.09, 11.09, 10.65, 10.65, 10.28, 10.28, 9.83, 9.39, 8.94, 8.49, 8.49, 8.49, 8.49, 8.49, 8.49, 8.94, 8.94, 8.94, 8.67, 8.4, 0.0, 0.0, 0.0, 0.0, 9.39, 9.39, 9.83, 10.28, 11.62, 12.52, 0.0, 6.6, 14.18, 20.83, 26.05, 20.42, 16.37, -17.88, -16.54, -16.09, -13.7, -10.47, -9.48, -10.37, -10.79, -10.79, -10.79, 9.48, 9.48, 9.48, 9.48, 9.78, 10.43, 10.43, 10.43, 10.43, 11.1, 11.1, 11.45, 11.8, 12.16, 12.16, 12.16, 12.52, 12.52, 12.52, 12.52, 12.51, 12.51, 12.89, 13.25, 12.65, 13.02, 12.62, 12.62, 12.79, 12.79, 12.79, 12.99, 12.58, 12.58, 12.93, 12.38, 12.38, 12.3, 12.3, 12.18, 12.51, 12.51, 12.51, 12.75, 12.27, 12.27, 11.84, 11.84, 11.84, 12.01, 11.55, 11.11, 11.11, 10.66, 10.2, 10.2, 10.2, 9.76, 9.32, 8.85, 8.94, 8.49, 8.49, 8.49, 8.49, 8.49, 8.94, 8.67, 8.94, 8.67, 9.11, 7.9, 0.0, 0.0, 0.0, 0.0, 0.0, 9.83, 10.28, 10.73, 12.07, 0.0, 7.93, 13.42, 20.12, 26.89, 21.61, 20.16, 17.43, 0.0, -16.96, -15.36, -12.65, -9.17, -9.17, -5.8, -5.8, -5.8, 9.48, 9.48, 9.48, 9.78, 9.78, 10.09, 10.09, 10.43, 10.43, 11.1, 11.1, 11.45, 11.8, 11.8, 11.8, 11.8, 12.16, 12.16, 12.16, 12.16, 12.51, 12.51, 12.51, 12.65, 12.65, 12.62, 12.62, 12.42, 12.42, 12.79, 12.79, 12.2, 12.58, 12.58, 12.18, 12.38, 12.38, 12.3, 12.3, 12.18, 12.51, 12.51, 12.51, 12.08, 12.31, 12.27, 11.84, 11.84, 11.84, 11.4, 11.55, 11.11, 11.11, 10.66, 10.66, 10.22, 10.2, 9.76, 9.32, 9.32, 8.85, 8.41, 8.41, 8.49, 8.49, 8.49, 8.82, 8.77, 8.77, 8.77, 9.21, 8.4, 6.64, 8.22, 0.0, 4.4, 4.4, 9.83, 10.28, 10.73, 11.62, 5.8, 7.69, 12.65, 17.81, 24.69, 24.07, 20.94, 20.48, 19.34, 15.99, -7.8, -11.38, -6.4, 0.0, 12.96, 12.96, 12.96, 9.48, 9.48, 9.48, 9.78, 9.78, 10.09, 10.09, 10.43, 10.43, 11.1, 11.1, 11.45, 11.8, 11.8, 11.8, 11.8, 12.16, 12.16, 12.16, 12.16, 12.51, 12.51, 12.51, 12.65, 12.65, 12.62, 12.62, 12.42, 12.42, 12.79, 12.79, 12.2, 12.58, 12.58, 12.18, 12.38, 12.38, 12.3, 12.3, 12.18, 12.51, 12.51, 12.51, 12.08, 12.31, 12.27, 11.84, 11.84, 11.84, 11.4, 11.55, 11.11, 11.11, 10.66, 10.66, 10.22, 10.2, 9.76, 9.32, 9.32, 8.85, 8.41, 8.41, 8.49, 8.49, 8.49, 8.82, 8.77, 8.77, 8.77, 9.21, 8.4, 6.64, 8.22, 0.0, 4.4, 6.95, 9.83, 10.28, 10.73, 11.62, 11.2, 9.48, 12.27, 15.27, 19.84, 23.62, 20.95, 21.01, 21.01, 20.12, 19.22, 17.43, 15.65, 12.96, 12.96, 12.96, 12.96]}, {"header": {"dx": 0.06612293990616946, "dy": 0.0552356325346848, "nx": 98, "ny": 59, "la1": 35.046912555036876, "la2": 31.78801023549047, "lo1": -121.43107172385933, "lo2": -114.95102361305473, "refTime": "2026041714", "parameterCategory": 1, "parameterNumber": 3}, "data": [-18.33, -18.14, -17.39, -16.44, -16.02, -14.79, -13.8, -12.52, -9.12, -8.85, -8.94, -8.59, -8.31, -6.67, -3.82, -4.08, -4.08, -2.71, -1.91, -0.0, -0.0, 2.54, 5.98, 6.98, 7.9, 8.22, 8.53, 10.41, 8.53, 8.53, 12.52, 12.96, 0.0, 0.0, 0.0, 6.95, 8.4, 9.39, 9.39, 5.7, 1.93, 1.84, -0.0, -0.0, -2.57, -5.8, -15.8, -19.55, -15.99, -12.87, -13.28, -14.31, -12.65, -13.02, -11.06, -11.06, -11.06, -13.02, -13.99, -15.65, -15.65, -15.65, -10.75, -10.75, 0.0, 0.0, 3.9, 7.2, 8.28, 8.28, 7.2, 4.95, 4.95, 2.57, 0.0, 0.0, 0.0, -1.58, -3.58, -7.32, -7.93, -6.0, -5.8, -6.44, -6.21, -4.32, -2.93, 0.0, 0.0, -6.2, -10.99, -14.23, -14.7, -14.99, -14.6, -14.16, -13.28, -12.83, -18.33, -18.33, -18.14, -17.19, -16.76, -15.61, -14.39, -12.52, -10.75, -8.85, -9.8, -10.43, -9.48, -6.94, -5.8, -2.93, -3.39, -1.98, -1.98, -1.64, -0.0, -0.0, 2.54, 5.8, 6.44, 7.9, 8.22, 8.53, 6.7, 3.96, -0.0, -0.0, 0.0, 0.0, -0.0, 6.32, 7.2, 8.48, 7.81, 4.6, 2.45, 2.2, -0.0, -3.3, -7.81, -13.51, -18.02, -15.45, -11.53, -13.19, -12.65, -13.03, -13.03, -13.03, -11.87, -11.06, -11.06, -12.65, -13.99, -15.65, -15.65, -15.2, -15.2, 0.0, 0.0, 0.0, 3.9, 9.66, 11.38, 10.05, 10.33, 10.05, 5.09, 2.5, 0.0, -2.09, -2.09, -1.58, -3.58, -7.32, -7.93, -6.0, -5.8, -6.44, -6.21, -4.32, -2.93, 0.0, 0.0, -6.2, -10.99, -14.23, -14.7, -14.99, -14.6, -14.16, -13.28, -12.83, -17.97, -18.19, -18.33, -17.7, -17.19, -16.76, -15.69, -14.94, -12.16, -11.8, -11.17, -10.55, -11.09, -9.17, -0.0, -0.0, -0.0, -0.0, -0.0, -0.0, -1.64, -2.06, -0.0, -0.0, 4.38, 7.59, 7.59, 7.59, 6.2, 3.68, -0.0, -0.0, -0.0, 3.53, 3.8, 4.96, 5.1, 7.15, 7.87, 5.98, 1.33, -0.0, -5.65, -8.35, -13.41, -14.13, -12.33, -10.18, -12.0, -13.2, -13.2, -13.2, -13.97, -13.59, -11.52, -10.75, -9.12, -11.06, -13.99, -13.99, -15.65, -15.2, 0.0, 0.0, 0.0, 7.0, 11.06, 11.06, 13.42, 14.39, 13.39, 11.38, 7.0, 2.15, 0.0, -4.05, -7.54, -3.3, -5.81, -8.57, -9.16, -8.59, -8.3, -6.7, -5.98, -4.32, 0.0, 0.0, -1.84, -6.63, -11.06, -14.36, -15.78, -15.2, -14.31, -13.32, -12.42, -12.14, -17.56, -17.89, -18.19, -17.88, -17.7, -17.26, -16.82, -15.69, -14.53, -14.47, -13.57, -12.98, -13.28, -11.2, -8.53, -0.0, -0.0, 1.98, 1.64, 1.71, -0.0, -0.0, -0.0, -0.0, -0.0, 4.1, 4.6, 5.46, 6.95, 7.9, 5.4, 4.38, 3.07, 8.05, 7.82, 6.7, 7.27, 8.58, 10.01, 5.15, -0.0, -2.72, -6.22, -7.8, -8.83, -9.02, -10.52, -10.86, -12.0, -12.51, -12.51, -13.2, -12.27, -11.52, -9.22, -7.59, -9.12, -8.68, -13.99, -15.65, -15.2, -15.2, 0.0, 0.0, 0.0, 0.0, 15.65, 14.84, 16.91, 17.53, 15.77, 9.77, 6.16, 3.2, 0.0, -1.53, -6.6, -10.75, -9.12, -9.8, -10.73, -10.91, -10.55, -8.93, -8.94, -6.45, 0.0, -1.64, -5.0, -9.61, -12.64, -13.05, -11.06, 0.0, 9.48, -7.44, -11.92, -11.99, -17.22, -17.56, -17.89, -17.74, -17.88, -17.88, -17.26, -16.76, -15.43, -15.2, -14.75, -13.72, -13.28, -10.37, -8.53, -2.93, 2.28, 6.21, 5.98, 6.21, 7.19, 6.94, 6.45, 6.45, 4.8, 3.82, 6.94, 8.53, 10.0, 10.28, 10.73, 6.2, 4.08, 3.6, 4.52, 4.52, 5.64, 9.8, 14.39, -5.51, -4.12, -0.0, 2.63, -0.0, -0.0, -7.69, -7.93, -10.12, -10.43, -11.87, -10.43, -10.12, -8.94, -7.59, -5.48, -5.48, -6.8, -8.68, -13.99, -15.2, -14.75, -14.3, 0.0, -0.0, -0.0, -0.0, -0.0, -0.0, -0.0, 0.0, 0.0, 0.0, 0.0, 1.93, 0.0, 0.0, -2.72, -7.58, -8.31, -9.48, -9.76, -10.99, -11.03, -10.27, -10.38, -11.4, -9.42, -7.65, -10.47, -13.96, -13.95, -12.02, -10.43, -13.41, -0.0, -9.48, -12.3, -12.22, -16.92, -17.02, -17.39, -17.46, -17.74, -17.88, -17.43, -16.99, -16.09, -15.65, -14.99, -14.3, -12.79, -11.6, -8.85, -3.82, 6.7, 9.66, 9.66, 8.53, 8.22, 10.8, 13.41, 13.41, 12.52, 10.8, 8.53, 5.4, -0.0, 12.07, 9.83, 6.17, 3.61, -0.0, -1.2, -1.53, -0.0, -0.0, 0.0, -14.3, -7.82, -3.1, -0.0, -0.0, -0.0, -0.0, -0.0, 0.0, -0.0, -4.52, -8.31, -7.13, -7.13, -6.4, -4.66, -5.48, -6.6, -8.18, -10.75, -13.19, -13.86, -13.41, -0.0, -3.69, -8.93, -12.01, -15.59, -13.76, -14.57, -19.34, -21.9, -19.91, -15.25, -9.32, -7.44, -4.35, -3.53, -5.27, -7.54, -7.78, -8.53, -9.67, -10.92, -11.4, -11.35, -11.44, -13.15, -14.96, -15.99, -15.7, -14.94, -14.3, -14.84, -10.79, -7.78, -11.99, -12.58, -12.14, -16.39, -16.69, -17.02, -16.96, -17.35, -17.74, -17.43, -17.43, -16.54, -15.49, -15.05, -13.86, -12.79, -11.6, -9.48, -0.0, 10.8, 12.52, 11.2, 5.4, -0.0, 0.0, 0.0, 12.96, 12.52, 11.62, -0.0, -8.53, -8.85, 4.8, 9.3, 6.95, 4.4, 1.16, -1.23, -2.54, -3.96, -6.0, -10.4, -3.82, -11.87, -7.78, -7.36, -8.83, -11.06, -8.43, -7.2, 0.0, 0.0, -9.8, -6.4, -8.31, -6.4, -5.48, -4.52, -5.15, -7.93, -7.93, -7.93, -12.39, -13.41, -0.0, -0.0, -7.2, -11.7, -14.18, -16.48, -15.87, -14.84, -17.42, -20.5, -19.67, -16.99, -16.12, -15.19, -13.74, -8.72, -5.45, -5.45, -7.69, -8.02, -10.48, -12.93, -14.18, -15.17, -16.73, -18.65, -18.68, -18.1, -17.42, -16.35, -17.2, -14.84, -6.9, -10.47, -12.3, -12.22, -12.66, -16.24, -15.99, -16.28, -16.6, -16.96, -17.35, -17.3, -16.86, -16.41, -15.18, -15.08, -13.86, -14.3, -13.41, 0.0, 5.4, 8.85, 9.48, 5.8, 8.85, 12.52, 12.52, 0.0, -13.86, -13.86, -12.07, -10.8, -8.85, -3.68, 3.53, 6.71, 5.98, 4.15, -0.0, -3.07, -5.0, -5.75, -7.9, -12.14, -9.3, -6.71, -11.71, -8.91, -11.17, -11.1, -12.22, -10.02, -11.38, -10.43, -12.79, -8.85, -9.48, -4.38, -0.0, -4.38, -4.38, -6.2, -0.0, -6.0, -9.17, -0.0, -0.0, -0.0, -4.95, -8.93, -13.59, -16.48, -15.65, -14.75, -15.65, -17.88, -18.33, -16.09, -15.6, -15.02, -14.42, -13.02, -8.83, -6.67, -7.21, -9.54, -11.26, -12.81, -15.01, -17.36, -19.6, -20.16, -18.52, -17.89, -16.54, -16.09, -16.01, -10.3, -9.8, -11.64, -12.27, -12.01, -12.9, -15.74, -15.45, -15.7, -15.99, -16.34, -16.96, -16.32, -16.48, -16.05, -15.27, -14.84, -13.86, -15.65, -13.41, -9.48, 0.0, 4.24, 7.44, 7.19, 11.87, 12.52, 12.14, 12.3, 0.0, -13.41, -12.52, -8.18, -5.95, -0.0, 2.6, 2.82, -0.0, -0.0, -2.93, -5.75, -6.17, -7.59, -8.73, -11.18, -11.02, -8.85, -6.94, -11.87, -10.18, -10.69, -10.22, -11.38, -13.05, -13.8, -14.42, -13.19, -9.17, -0.0, -0.0, -0.0, -0.0, -0.0, -0.0, -0.0, -0.0, -0.0, -0.0, -0.0, -0.0, -0.0, -0.0, 12.33, 14.39, 12.27, 8.18, 3.9, 0.0, -2.72, -5.81, -10.43, -11.9, -12.66, -11.38, -10.73, -10.75, -10.47, -9.97, -10.99, -12.41, -15.18, -16.8, -17.41, -16.54, 7.2, -0.0, -10.79, -10.79, -9.76, -10.59, -11.99, -12.31, -12.02, -12.02, -15.14, -15.74, -15.99, -16.28, -15.99, -16.34, -15.93, -16.12, -15.27, -14.71, -14.99, -14.56, -13.86, -12.91, -14.03, -13.41, 0.0, 0.0, 13.86, 12.96, 8.85, 10.41, 11.6, 9.48, -6.0, -8.53, -6.95, -0.0, -0.0, -0.0, -0.0, -0.0, -0.0, -2.93, -5.98, -5.2, -7.59, -7.44, -10.68, -12.52, -11.45, -10.01, -5.4, -8.22, -8.69, -9.17, -9.06, -10.12, -12.82, -13.99, -13.19, -0.0, 0.0, 0.0, -0.0, 6.4, 7.69, 5.8, -0.0, -0.0, -0.0, -0.0, -0.0, 7.2, 8.93, 14.95, 16.96, 16.09, 13.44, 12.42, 10.43, 8.29, 6.54, 3.49, 0.0, -3.01, -8.05, -10.25, -11.04, -12.56, -13.59, -11.18, -9.41, -10.02, -9.32, -9.97, -11.28, 0.0, 11.17, 9.17, 0.0, -10.41, -11.2, -11.77, -12.04, -12.41, -12.93, -12.48, -15.14, -14.85, -15.45, -15.7, -15.99, -15.99, -16.19, -15.11, -15.11, -14.39, -14.53, -14.11, -14.9, -14.3, -14.53, -13.57, -14.75, -14.3, -14.75, -0.0, 7.0, -0.0, -0.0, -0.0, -0.0, -0.0, -0.0, 0.0, -0.0, -8.85, -3.82, -0.0, -0.0, -1.93, -3.87, -7.26, -9.3, -9.97, -9.86, -12.14, -12.96, -12.52, -8.22, 0.0, -6.97, -7.14, -6.7, -7.36, -8.61, -8.73, -7.59, -0.0, -0.0, -0.0, 3.16, 4.54, 8.51, 7.69, 7.9, -13.41, -17.43, -17.88, -11.7, -0.0, 5.98, 12.64, 15.99, 17.7, 15.08, 11.26, 10.52, 9.71, 9.88, 5.98, 2.72, -1.11, -4.47, -7.41, -11.17, -12.82, -14.39, -14.33, -11.86, -8.43, -7.63, -4.34, -2.31, 0.0, 1.3, 1.33, 0.0, -4.65, -12.27, -11.99, -12.8, -13.96, -12.86, -12.85, -14.67, -14.85, -14.88, -15.45, -15.7, -15.33, -15.59, -14.79, -14.18, -14.79, -14.65, -14.53, -14.84, -15.49, -14.99, -12.27, -11.6, -12.52, -13.41, 0.0, -0.0, -0.0, -0.0, -0.0, -0.0, -0.0, -0.0, 3.8, -0.0, -3.39, -6.2, -4.8, -0.0, 2.02, -1.69, -5.95, -8.24, -9.08, -9.46, -10.8, -11.87, -10.8, -8.22, 0.0, -0.0, -4.05, -4.24, -4.93, -5.8, -6.2, -5.81, -3.24, -1.87, -0.0, 1.91, 4.17, 5.53, 10.41, 0.0, -12.39, -17.88, -18.33, -12.33, -2.65, -0.0, 2.38, 10.0, 20.39, 20.12, 15.19, 12.0, 9.13, 9.06, 6.8, 3.14, 0.0, -2.82, -6.1, -9.77, -11.06, -13.18, -14.13, -14.13, -10.73, -8.9, -6.08, -4.23, -2.8, -2.89, -2.11, -2.06, -2.28, -4.08, -8.22, -12.52, -12.53, -12.53, -12.53, -14.95, -14.67, -14.85, -15.45, -15.09, -15.7, -15.31, -14.91, -14.52, -14.13, -14.39, -14.53, -14.84, -15.47, -16.54, -15.69, -13.99, -13.19, -13.86, 0.0, -0.0, -0.0, -0.0, 2.43, 2.35, 2.28, 2.2, 3.56, 1.71, -2.13, -4.15, -2.71, -0.0, 2.02, -0.0, -1.69, -2.82, -5.0, -6.2, -7.9, -8.22, -8.22, -5.0, -4.4, -4.6, -2.6, -3.19, -4.75, -5.8, -6.0, -5.18, -4.51, -5.14, -5.85, -5.96, -7.22, -2.84, -0.0, -11.38, -9.66, -15.47, -16.31, -8.97, -5.65, -6.26, -8.32, -5.88, -0.0, -0.0, 25.03, 15.8, 9.4, 5.02, 2.28, 0.0, -0.83, -3.09, -5.09, -8.64, -10.99, -11.38, -13.06, -13.23, -14.09, -12.01, -10.41, -8.8, -7.17, -5.98, -4.81, -4.08, -2.82, -3.21, -2.82, -6.44, -13.41, -12.66, -13.07, -14.51, -14.67, -14.7, -15.23, -14.88, -15.45, -14.71, -14.33, -14.33, -14.52, -14.39, -14.53, -14.53, -15.07, -14.79, -16.91, -17.43, -16.99, -16.09, -11.06, -0.0, -0.0, -0.0, -0.0, 1.94, 1.89, 1.89, 1.83, -0.0, -0.0, -2.33, -0.0, -0.0, -0.0, -0.0, -0.0, -0.0, -1.45, -3.25, -4.8, -5.95, -5.7, -7.59, -8.23, -6.95, -0.0, -0.0, -4.15, -4.32, -4.65, -3.96, -3.82, -5.4, -7.54, -8.15, -8.42, -8.68, -13.59, -21.46, -11.28, -13.27, -15.04, -12.71, -11.06, -10.47, -10.59, -9.92, -11.73, -16.76, -22.8, -10.6, 0.0, -2.27, -3.82, -5.2, -6.99, -7.84, -7.8, -8.74, -11.19, -11.19, -10.15, -11.06, -11.25, -13.81, -13.11, -11.55, -10.43, -9.43, -7.4, -4.81, -4.17, -3.68, -3.96, -6.0, -6.9, -10.37, -12.96, -14.51, -14.19, -15.04, -14.7, -15.23, -15.25, -14.88, -14.51, -14.13, -13.95, -14.65, -14.53, -14.94, -14.94, -14.79, -16.19, -16.91, -17.43, -17.43, -12.01, -7.4, -0.0, -0.0, -0.0, -0.0, -0.0, -0.0, -0.0, -0.0, -0.0, -0.0, -0.0, -0.0, -0.0, -0.0, -0.0, -2.1, -2.39, -2.19, -2.39, -2.49, -4.8, -6.95, -6.95, -4.4, -0.0, 6.95, -0.0, -0.0, -0.0, -0.0, -0.0, -4.8, -6.64, -6.95, -5.95, -7.56, -12.23, -18.29, -16.54, -12.3, -12.86, -12.11, -11.72, -11.52, -11.36, -12.36, -13.59, -13.1, -15.71, -18.39, -17.17, -12.34, -7.93, -9.48, -12.24, -12.33, -11.96, -9.42, -8.43, -7.8, -6.69, -6.35, -6.0, -6.96, -13.2, -12.5, -11.91, -11.38, -9.73, -7.6, -5.62, -5.4, -5.6, -6.0, -8.3, -9.96, -9.96, -14.51, -14.19, -15.04, -14.7, -14.7, -15.07, -14.7, -14.3, -14.13, -14.29, -14.13, -14.39, -14.94, -15.36, -15.52, -15.61, -16.54, -17.43, -17.88, -15.59, -7.8, -0.0, -0.0, -0.0, -0.0, 1.94, 1.68, 1.68, 1.68, 1.63, -0.0, -0.0, -0.0, -0.0, -0.0, -0.0, -0.0, -0.0, -0.0, -0.0, -0.0, -0.0, -0.0, -0.0, -0.0, 6.64, 6.95, 4.6, 7.27, 7.27, -0.0, -0.0, 0.0, 0.0, 0.0, 6.95, -10.28, -10.68, -14.23, -15.65, -11.84, -11.62, -11.03, -8.53, -8.53, -6.67, -8.61, -10.01, -7.2, -6.22, -18.4, -17.81, -14.53, -14.33, -12.37, -15.91, -16.6, -14.82, -9.09, 0.0, 5.8, 2.27, 0.0, -2.89, -4.12, -4.62, -10.47, -10.62, -10.12, -9.8, -9.77, -7.62, -7.43, -7.44, -6.67, -7.41, -9.42, -9.42, -14.06, -14.51, -14.55, -14.55, -15.04, -15.07, -15.07, -14.7, -14.51, -14.67, -14.39, -14.65, -15.54, -15.54, -15.77, -15.52, -15.61, -17.2, -17.43, -16.54, -7.8, -0.0, -0.0, -0.0, -0.0, 1.78, 1.78, 3.16, 3.16, 1.6, 1.56, -0.0, -0.0, -0.0, -0.0, -0.0, -0.0, 2.1, -0.0, -0.0, -0.0, -0.0, -0.0, -0.0, -0.0, 4.4, -0.0, -0.0, 7.27, 7.27, 10.28, 0.0, 0.0, 0.0, 0.0, 0.0, 4.6, 0.0, -10.8, -12.71, -12.52, -7.9, 0.0, 10.73, 9.6, 9.75, -0.0, -3.19, -5.63, -10.46, -21.9, -17.11, -15.53, -18.31, -16.18, -17.92, -18.65, -17.08, -11.8, 0.0, 0.0, 0.0, -2.79, -4.47, -5.14, -4.17, -5.86, -9.17, -10.59, -10.36, -9.34, -8.49, -8.37, -9.69, -8.83, -8.02, -9.77, -9.77, -14.37, -14.51, -14.55, -14.55, -14.55, -14.91, -15.42, -14.7, -14.33, -14.13, -14.79, -14.39, -15.06, -15.06, -15.46, -15.36, -15.93, -16.91, -16.99, -16.54, -11.7, -0.0, -0.0, -0.0, 1.6, 1.78, 1.83, 3.16, 2.88, 2.88, 2.8, 2.72, 2.56, 2.28, 2.1, 1.45, -0.0, -0.0, -0.0, -0.0, -3.11, -3.11, -0.0, -0.0, -0.0, -0.0, -0.0, -0.0, -0.0, -0.0, 10.28, 10.28, 0.0, 0.0, 0.0, 0.0, 7.27, 9.6, 10.6, 7.9, 0.0, 0.0, 0.0, 7.59, 10.73, 9.54, 9.39, 9.2, -2.37, -13.42, -20.12, -18.66, -18.36, -19.72, -16.91, -16.95, -17.88, -18.68, -17.08, -13.28, -11.48, -10.52, -10.73, -7.93, -7.54, -7.63, -8.3, -7.78, -10.09, -11.72, -11.17, -9.17, -8.22, -9.76, -11.29, -10.23, -10.12, -10.12, -14.37, -14.06, -14.51, -14.19, -14.55, -14.55, -14.91, -14.55, -14.7, -14.85, -14.29, -14.79, -15.27, -15.68, -15.27, -17.26, -15.36, -15.69, -15.93, -16.09, -14.79, -7.8, -2.72, -0.0, -0.0, -0.0, 1.43, 2.5, 2.57, 2.48, 3.47, 3.47, 3.25, 3.55, 3.29, 2.41, 0.79, -0.89, -1.58, -2.6, -2.39, -2.49, -0.0, -0.0, -0.0, -0.0, -0.0, -0.0, 4.6, 7.27, 10.28, 10.28, 10.28, 10.28, 10.28, 10.28, 7.27, 7.9, 5.4, 0.0, 0.0, 0.0, 0.0, 9.83, 9.33, 9.11, 9.39, 10.28, 10.73, -14.3, -15.99, -15.71, -18.15, -17.39, -18.14, -16.54, -16.01, -16.52, -16.95, -16.42, -14.57, -14.06, -12.87, -13.05, -12.87, -12.87, -12.56, -12.29, -11.07, -11.16, -12.07, -10.85, -10.47, -10.81, -12.62, -12.79, -11.97, -11.97, -14.37, -14.37, -14.06, -14.06, -14.42, -14.88, -14.55, -14.55, -15.04, -14.85, -14.96, -14.56, -15.02, -15.42, -15.85, -15.27, -15.54, -14.99, -16.99, -16.54, -17.43, -14.13, -3.33, -0.0, -2.28, -0.0, -0.0, -0.0, 1.25, 2.32, 2.06, 3.04, 2.71, 2.71, 2.61, 2.41, 0.82, -0.0, -0.97, -1.02, -1.18, -0.0, -0.0, -0.0, -0.0, -0.0, -0.0, 4.6, 4.6, 8.8, 8.8, 9.2, 9.6, 11.18, 9.83, 9.33, 7.9, 7.59, 0.0, 0.0, 0.0, 0.0, 0.0, 10.73, 9.97, 10.28, 9.97, 9.3, 10.8, 9.48, 4.54, 0.0, 0.0, 0.0, -9.4, -16.71, -16.09, -20.43, -17.41, -16.37, -14.71, -14.79, -14.85, -14.46, -14.26, -13.27, -11.57, -9.17, -10.65, -10.01, -11.58, -12.39, -13.13, -12.39, -13.15, -14.61, -13.89, -13.89, -14.37, -14.37, -14.06, -14.06, -14.06, -14.06, -14.88, -14.55, -15.04, -14.7, -14.47, -14.56, -15.02, -15.61, -15.61, -15.42, -15.44, -15.09, -14.68, -16.99, -16.91, -12.52, -5.98, -2.0, -3.16, -1.46, -0.0, -0.0, -0.0, 1.09, 1.91, 1.91, 1.91, 2.82, 1.91, 1.84, 0.93, 0.97, -0.0, -0.0, -0.0, -0.0, -0.0, -0.0, -0.0, -0.0, -0.0, 4.6, 4.6, 7.27, 8.8, 9.2, 9.6, 11.18, 10.73, 9.75, 10.0, 10.6, 0.0, 0.0, 0.0, 0.0, 10.73, 11.18, 10.28, 10.73, 10.73, 11.21, 12.04, 10.82, 7.76, 5.27, 0.0, -6.59, -12.8, -15.24, -17.88, -21.98, -21.75, -18.76, -16.86, -14.88, -13.02, -11.64, -11.69, -11.37, -7.44, 0.0, -5.45, -8.02, -9.77, -11.31, -13.19, -12.18, -13.15, -14.31, -14.31, -14.31, -14.26, -14.37, -14.37, -14.06, -14.06, -14.06, -14.06, -14.88, -15.04, -14.67, -14.75, -14.36, -14.79, -15.19, -15.19, -15.61, -15.85, -15.38, -15.83, -16.54, -15.07, -11.87, -4.66, -1.89, -1.78, -1.65, -0.0, -0.0, -0.0, 1.17, 2.16, 2.08, 1.91, 2.08, 2.08, 2.0, 1.16, 1.16, 1.23, 1.23, 1.23, 1.39, 1.39, 1.5, 1.58, 1.76, -0.0, 4.4, 4.6, 4.6, 9.2, 9.6, 9.6, 10.0, 10.73, 11.18, 11.62, 12.14, 8.22, 7.59, 10.28, 10.73, 11.18, 10.84, 11.18, 11.18, 11.62, 12.07, 12.71, 14.31, 13.99, 14.22, 5.75, -7.63, -10.7, -11.02, -15.56, -18.76, -20.86, -20.88, -18.24, -16.19, -15.55, -13.84, -12.13, -8.38, -4.98, -6.4, -8.85, -6.7, -8.12, -10.38, -11.57, -12.07, -13.2, -13.75, -14.18, -14.18, -13.88, -13.88, -14.0, -14.37, -13.95, -14.06, -14.06, -14.51, -14.51, -14.67, -14.29, -14.36, -14.79, -14.99, -15.39, -15.19, -15.61, -15.81, -16.05, -16.99, -15.9, -11.38, -6.6, -3.47, -3.58, -1.73, -0.0, -0.0, -0.0, 1.3, 1.21, 2.32, 2.16, 2.08, 2.28, 2.28, 2.52, 1.28, 1.44, 1.44, 1.44, 3.19, 3.19, 3.19, 3.68, 4.15, 3.39, 4.2, 4.2, 4.6, 4.6, 9.6, 9.6, 10.6, 10.73, 10.73, 10.96, 11.6, 11.6, 8.4, 9.39, 10.28, 11.28, 10.79, 10.96, 11.02, 11.62, 11.18, 11.62, 12.52, 13.86, -0.0, 18.65, -13.86, -8.05, -9.33, -9.96, -12.16, -16.99, -18.73, -19.16, -16.97, -15.62, -15.53, -14.1, -11.88, -10.82, -10.99, -11.54, -13.58, -10.31, -10.99, -11.07, -10.69, -11.9, -13.02, -13.47, -13.47, -13.88, -13.88, -14.26, -14.0, -13.95, -13.95, -14.06, -14.51, -14.51, -14.51, -14.57, -13.91, -14.59, -14.59, -14.99, -15.39, -15.61, -15.58, -15.81, -16.92, -16.86, -12.92, -8.68, -5.99, -3.47, -3.58, -1.68, -0.0, -0.0, -0.0, 1.42, 1.38, 1.29, 1.25, 1.28, 1.23, 1.39, 1.39, 2.82, 3.19, 3.19, 3.68, 3.68, 4.32, 5.98, 5.75, 3.96, 5.0, 4.8, 7.9, 8.22, 10.0, 9.6, 9.6, 9.75, 9.75, 9.97, 10.8, 11.6, 11.62, 8.94, 9.39, 10.6, 11.4, 11.02, 11.91, 11.91, 12.14, 11.18, 11.18, 0.0, -18.39, -0.0, 19.91, -16.54, -12.72, -10.18, -7.78, -9.44, -15.2, -15.73, -17.37, -17.43, -16.52, -15.57, -15.78, -15.52, -15.9, -16.79, -15.58, -13.46, -10.38, -10.3, -9.8, -10.69, -12.07, -12.2, -12.2, -13.88, -13.88, -13.88, -14.26, -13.59, -13.59, -14.37, -14.06, -14.51, -14.51, -14.13, -14.18, -14.18, -14.59, -14.59, -14.99, -14.99, -15.36, -15.58, -16.05, -16.99, -15.19, -10.33, -8.93, -5.99, -4.05, -1.83, -0.0, -0.0, -0.0, -0.0, 1.58, 1.48, 1.43, 1.55, 1.44, 1.39, 1.58, 3.07, 3.68, 3.68, 4.32, 4.15, 6.71, 6.71, 6.44, 6.97, 7.59, 6.95, 7.87, 8.58, 8.85, 7.59, 7.59, 7.27, 9.75, 8.55, 8.8, 10.4, 12.52, 10.0, 8.4, 9.33, 10.73, 11.62, 12.07, 11.91, 11.21, 10.8, 0.0, -4.24, -8.68, 0.0, 6.72, 6.72, 0.0, -2.94, -6.35, -4.52, -4.71, -13.79, -15.05, -18.76, -20.1, -19.14, -18.17, -18.35, -17.89, -16.62, -15.08, -16.33, -12.09, -10.69, -9.87, -9.48, -10.3, -11.21, -11.21, -13.51, -13.51, -13.51, -13.88, -13.88, -13.59, -13.59, -14.0, -14.37, -14.78, -14.4, -14.13, -14.18, -14.18, -14.79, -14.79, -15.15, -15.36, -15.69, -15.81, -16.9, -16.82, -13.26, -11.7, -8.68, -6.8, -4.05, -2.02, -0.0, -0.0, -0.0, -0.0, 1.66, 1.66, 1.77, 1.71, 1.91, 1.84, 3.53, 4.15, 4.15, 5.2, 6.71, 6.71, 7.59, 7.59, 8.22, 7.27, 7.87, 7.87, 8.94, 8.94, 8.85, 8.53, 7.9, 7.59, 8.55, 8.18, 7.27, 10.4, 10.8, 10.04, 9.11, 9.83, 11.18, 12.07, 12.27, 11.62, 7.19, 0.0, -3.82, -4.52, -2.79, 0.0, 3.86, 8.34, 2.72, -4.7, -5.36, -3.97, -4.24, -12.87, -15.65, -18.76, -16.99, -17.36, -16.25, -15.34, -14.5, -15.17, -16.95, -14.52, -10.75, -10.02, -9.36, -9.57, -10.3, -10.3, -13.51, -13.51, -13.51, -13.88, -13.88, -13.88, -13.59, -13.59, -14.0, -14.0, -14.0, -14.4, -14.03, -14.42, -14.42, -14.79, -14.79, -15.15, -15.36, -15.58, -16.31, -16.54, -15.69, -12.92, -10.05, -8.05, -5.64, -2.43, -2.35, -0.0, -0.0, -0.0, 2.54, 2.54, 3.04, 3.04, 3.04, 3.82, 6.7, 6.45, 7.9, 9.67, 9.67, 8.93, 8.55, 9.3, 9.3, 8.55, 8.18, 8.8, 8.58, 9.58, 8.03, 7.27, 7.9, 5.95, 5.95, 5.7, 5.63, 8.55, 12.07, 10.96, 10.84, 10.58, 12.52, 11.62, 11.84, 9.17, 5.8, 0.0, -3.14, -3.25, -5.48, -5.37, 0.0, 0.0, -8.63, -9.42, -6.96, -5.28, -5.2, -5.27, -12.27, -12.96, -16.93, -17.88, -16.83, -15.53, -15.2, -14.75, -15.2, -16.36, -14.85, -12.63, -10.75, -10.12, -10.12, -10.12, -13.76, -13.76, -13.51, -13.88, -13.88, -13.88, -13.59, -13.59, -13.59, -14.0, -14.0, -14.0, -14.4, -14.4, -14.81, -14.42, -14.42, -14.79, -15.15, -15.36, -15.81, -16.46, -16.54, -15.27, -13.8, -11.06, -9.12, -8.43, -4.66, -0.0, -0.0, 4.38, 4.24, 4.1, 5.6, 8.85, 8.85, 8.85, 8.53, 10.8, 10.4, 11.03, 11.18, 10.28, 9.83, 10.73, 10.28, 9.75, 8.18, 8.55, 7.9, 9.2, 8.93, 8.93, 8.93, 8.22, 7.9, 5.95, 6.17, 8.23, 10.84, 11.18, 10.96, 11.84, 11.4, 12.52, 11.99, 5.6, 0.0, 0.0, 0.0, 0.0, -4.24, -7.69, -11.87, -17.59, -20.8, -15.99, -9.8, -6.42, -6.41, -5.51, -5.62, -8.85, -12.39, -15.2, -14.73, -15.53, -15.6, -14.75, -14.73, -16.02, -15.29, -14.49, -12.84, -11.82, -11.54, -11.54, -13.76, -13.76, -13.51, -13.51, -13.88, -13.88, -13.49, -13.59, -13.59, -13.59, -14.0, -14.0, -14.0, -14.4, -14.4, -14.42, -14.42, -14.42, -14.79, -14.99, -15.58, -15.61, -15.99, -16.09, -15.43, -15.65, -14.75, -14.42, -10.43, -0.0, -0.0, 9.8, 9.8, 11.99, 11.6, 11.2, 11.2, 12.52, 12.07, 12.07, 11.62, 11.62, 11.18, 12.07, 12.07, 10.28, 9.11, 9.33, 10.28, 9.75, 10.6, 9.6, 9.55, 9.2, 9.86, 9.6, 11.45, 9.67, 7.59, 8.94, 10.0, 10.84, 12.07, 12.52, 12.07, 12.79, 13.15, 11.2, -11.62, 0.0, 0.0, 0.0, 0.0, -4.71, -10.77, -16.09, -20.94, -18.37, -17.05, -13.74, -8.32, -6.58, -6.56, -4.33, -5.27, -11.64, -13.23, -13.86, -15.11, -15.2, -16.01, -16.91, -16.48, -15.04, -14.7, -13.77, -12.84, -12.84, -13.76, -13.76, -13.51, -13.51, -13.88, -13.88, -13.49, -13.49, -13.59, -13.59, -13.59, -14.0, -14.0, -14.0, -14.4, -14.03, -14.03, -14.42, -14.79, -14.2, -14.39, -15.02, -14.24, -14.3, -15.04, -14.99, -15.2, -15.2, -14.75, -14.75, 0.0, 14.3, 13.86, 13.41, 12.96, 12.52, 12.52, 12.52, 12.07, 12.07, 12.07, 11.03, 11.03, 10.18, 10.6, 11.62, 10.0, 9.2, 9.97, 11.18, 11.18, 10.28, 10.08, 9.75, 10.18, 10.18, 9.7, 11.02, 10.4, 7.9, 7.59, 9.3, 12.07, 11.62, 11.91, 12.35, 13.41, 14.3, 11.18, 0.0, 7.59, 6.0, 3.9, 0.0, -5.23, -11.31, -13.91, -16.02, -17.56, -17.99, -16.99, -10.43, -8.3, -6.94, -4.87, -3.1, -1.96, -8.58, -14.55, -14.75, -14.73, -15.62, -15.62, -16.69, -15.96, -15.44, -15.09, -15.09, -13.76, -13.76, -13.76, -13.51, -13.51, -13.88, -13.49, -13.49, -13.14, -13.14, -13.59, -13.59, -14.0, -14.0, -14.0, -13.63, -13.65, -14.03, -14.42, -14.18, -14.2, -13.58, -13.51, -13.42, -12.89, -13.97, -13.7, -12.27, -10.12, -6.6, 0.0, 6.4, 6.4, 9.8, 9.48, 11.6, 11.2, 11.87, 11.87, 11.45, 11.45, 11.45, 11.03, 10.0, 10.41, 12.07, 12.07, 10.41, 9.97, 11.18, 10.73, 10.28, 10.28, 10.73, 10.52, 10.18, 10.14, 11.62, 10.58, 9.3, 6.2, 5.2, 8.53, 10.4, 9.66, 9.97, 10.79, 12.96, 10.8, 7.27, 8.91, 9.3, 8.05, 7.79, 1.5, -2.72, -6.72, -7.59, -12.92, -17.19, -17.94, -14.47, -10.3, -8.78, -7.95, -5.5, -4.21, -2.56, -7.1, -13.19, -14.18, -13.7, -14.11, -13.42, -15.08, -14.56, -14.81, -14.81, -13.39, -13.39, -13.76, -13.51, -13.51, -13.14, -13.14, -13.14, -13.14, -13.14, -13.14, -13.59, -13.59, -14.0, -14.0, -13.63, -13.26, -13.65, -14.03, -13.39, -12.73, -13.16, -12.52, -12.29, -12.0, -12.37, -12.27, -10.12, -7.0, -4.38, 0.0, 0.0, 4.52, 7.69, 7.69, 7.44, 10.79, 10.79, 10.41, 10.41, 10.04, 10.04, 9.67, 9.67, 10.0, 9.3, 10.6, 10.18, 10.73, 11.18, 10.73, 10.28, 10.73, 10.73, 10.28, 10.08, 10.96, 11.18, 10.73, 10.08, 8.53, 5.2, 11.62, 10.84, 10.4, 8.94, 7.27, 8.22, 12.52, 8.53, 8.55, 8.93, 6.2, 3.09, 4.42, 1.54, -4.52, -10.4, -7.69, -9.92, -10.17, -8.0, -4.12, -4.3, -5.49, -6.54, -7.49, -5.3, -4.52, -6.2, -7.13, -3.47, 0.0, 0.0, -11.87, -12.73, -12.11, -12.11, -13.39, -13.39, -13.39, -13.51, -13.14, -13.14, -13.14, -13.14, -13.14, -13.14, -13.14, -13.23, -13.59, -13.59, -13.59, -13.23, -13.63, -12.57, -12.98, -12.98, -12.73, -12.4, -11.68, -11.76, -11.36, -11.1, -9.6, -7.93, -7.13, -4.81, 0.0, 0.0, 2.72, 3.36, 6.2, 6.2, 6.0, 9.48, 9.17, 8.85, 8.85, 8.85, 10.04, 9.67, 9.3, 9.3, 10.6, 10.18, 10.18, 10.18, 9.75, 10.28, 11.18, 10.73, 10.28, 10.73, 10.73, 10.73, 10.28, 10.73, 10.41, 9.6, 11.62, 10.73, 10.84, 10.0, 8.93, 7.27, 11.62, 11.6, 9.66, 7.9, 0.0, -4.42, -2.34, 0.0, 0.0, -10.43, -6.2, -2.43, 0.0, 0.0, 0.0, 0.0, 0.0, -1.65, -4.62, -5.19, -4.52, -4.71, -6.67, -7.44, 0.0, 0.0, 0.0, -2.5, -4.81, -4.81, -13.39, -13.39, -13.05, -13.05, -13.14, -13.14, -13.14, -13.14, -13.14, -12.77, -13.14, -12.84, -13.23, -13.59, -13.23, -13.23, -12.16, -12.57, -12.57, -12.3, -12.3, -11.6, -11.2, -11.25, -9.87, -9.8, -8.58, -7.58, -5.81, -3.93, -2.2, 0.0, 0.0, 2.72, 2.72, 5.15, 5.15, 8.31, 8.05, 7.78, 7.78, 8.85, 8.85, 8.53, 6.45, 7.9, 7.9, 7.59, 9.6, 9.6, 10.18, 10.6, 10.18, 10.28, 10.28, 10.28, 10.28, 9.83, 10.28, 10.73, 12.52, 10.0, 11.18, 11.18, 9.75, 10.18, 7.59, 7.59, 11.62, 12.52, 10.41, 8.85, 0.0, -5.34, -7.49, -1.72, 3.1, 5.52, 3.78, 0.0, 0.0, -1.41, -1.41, -1.41, -1.41, -2.28, -3.37, -3.42, -2.81, -2.91, -3.44, -3.96, -5.6, 0.0, 0.0, 0.0, -2.15, -2.15, -13.05, -13.05, -13.05, -13.05, -12.78, -13.14, -13.14, -13.14, -12.77, -12.77, -12.45, -12.84, -12.84, -13.59, -12.92, -12.5, -12.16, -11.79, -11.79, -12.22, -11.5, -11.6, -11.2, -10.75, -9.34, -9.22, -7.36, -6.95, -4.52, -3.47, -1.77, 0.0, 0.0, 0.0, 2.2, 2.28, 4.38, 7.13, 6.9, 6.9, 6.9, 7.78, 7.51, 5.4, 6.7, 6.45, 7.9, 7.9, 7.9, 9.6, 9.6, 10.6, 10.18, 9.75, 10.18, 9.75, 9.33, 9.33, 9.54, 10.28, 9.54, 10.4, 9.6, 11.18, 11.18, 7.9, 4.8, 5.0, 7.9, 12.07, 11.87, 9.8, 2.81, 0.0, -3.23, -1.53, 2.72, 6.22, 6.92, 2.72, 0.0, -2.79, -4.12, -3.69, -3.79, -3.58, -3.58, -2.64, -1.48, -1.25, -1.38, -1.77, -3.04, -3.04, -2.54, 0.0, 0.0, 0.0, -12.68, -12.68, -13.05, -13.05, -12.78, -12.78, -13.14, -13.14, -12.77, -12.77, -12.45, -12.45, -12.84, -12.5, -12.5, -12.5, -11.79, -11.79, -11.79, -11.38, -11.5, -10.75, -10.27, -9.44, -8.85, -8.68, -6.85, -6.4, -4.11, -3.1, -1.58, 0.0, 0.0, 0.0, 0.0, 1.9, 4.24, 4.24, 6.0, 6.0, 6.9, 6.67, 4.81, 5.6, 5.4, 5.4, 6.45, 6.45, 7.9, 7.9, 9.6, 9.6, 10.18, 8.93, 9.75, 9.33, 9.33, 9.33, 9.54, 10.28, 10.28, 8.0, 9.6, 9.2, 10.28, 7.9, 4.6, 4.8, 10.0, 10.0, 12.96, 10.79, 7.0, 3.33, 1.6, 0.0, 0.0, 3.23, 1.65, 0.0, 0.0, -1.65, -3.47, -4.55, -4.24, -3.73, -2.81, -3.04, -1.55, -1.43, -1.17, -1.43, -2.13, -4.81, -4.65, -4.1, 0.0, 0.0, -12.68, -12.68, -13.05, -12.78, -12.78, -12.78, -13.14, -13.14, -12.77, -12.77, -12.45, -12.45, -12.09, -12.5, -12.5, -12.5, -11.79, -11.38, -11.38, -11.38, -10.61, -10.31, -9.82, -8.99, -8.85, -7.43, -6.4, -5.92, -3.76, -2.81, -1.42, -1.58, 0.0, 0.0, 0.0, 1.9, 1.9, 3.68, 3.68, 4.24, 4.24, 4.81, 4.65, 4.1, 4.15, 5.4, 2.93, 3.68, 3.68, 5.0, 7.9, 9.6, 9.6, 8.93, 8.18, 8.18, 9.33, 8.91, 9.54, 9.54, 9.54, 9.39, 9.2, 8.8, 10.73, 11.18, 6.95, 7.27, 9.6, 10.73, 11.62, 11.6, 11.06, 8.4, 7.18, 1.78, -1.72, -5.37, -7.07, -7.07, -5.65, -3.78, -3.69, -5.11, -3.82, -2.13, 0.0, 0.0, 0.0, 0.0, -1.29, -1.21, -1.48, -4.24, -6.67, -6.67, -6.0, -1.9, -12.68, -12.68, -12.68, -12.78, -12.78, -12.78, -12.42, -12.42, -12.77, -12.45, -12.45, -12.11, -11.76, -11.76, -12.09, -11.79, -11.79, -11.38, -10.95, -10.47, -10.18, -10.11, -9.27, -8.4, -7.73, -6.78, -6.4, -5.5, -4.52, -3.76, -2.56, -1.42, -1.42, 0.0, 0.0, 1.72, 1.66, 1.66, 1.9, 1.9, 4.24, 4.1, 4.65, 4.1, 4.15, 4.48, 2.37, 2.93, 2.82, 3.53, 5.0, 7.59, 9.6, 7.27, 8.18, 8.18, 7.81, 8.91, 9.11, 9.54, 9.54, 9.39, 10.73, 9.39, 9.83, 10.73, 10.73, 9.75, 10.18, 11.18, 11.18, 12.96, 13.19, 12.33, 12.42, 10.2, 4.05, -2.5, -9.55, -10.35, -8.25, -6.17, -4.81, -3.58, 0.0, 0.0, 2.28, 2.28, 0.0, 0.0, 0.0, -1.21, -1.33, -3.25, -6.0, -8.1, -7.44, -6.0, -12.68, -12.68, -12.43, -12.43, -12.42, -12.42, -12.42, -12.11, -12.11, -12.11, -12.11, -11.76, -12.09, -12.09, -11.7, -11.7, -11.7, -10.95, -10.47, -10.18, -9.67, -9.39, -9.27, -8.4, -7.73, -6.78, -5.99, -5.5, -4.52, -3.47, -2.56, -1.3, -1.42, 0.0, 0.0, 0.0, 0.0, 0.0, 1.66, 1.9, 2.2, 2.13, 4.81, 3.82, 4.1, 3.68, 2.37, 2.37, 2.28, 2.71, 3.53, 3.39, 7.59, 7.27, 5.46, 5.46, 6.64, 7.44, 7.81, 8.4, 8.8, 9.11, 7.21, 9.83, 10.28, 10.28, 9.83, 9.75, 8.93, 11.18, 11.18, 11.62, 13.86, 13.99, 13.91, 18.97, 15.45, 7.2, 0.0, -8.31, -8.38, -6.0, -3.25, 0.0, 1.72, 1.77, 1.58, 0.0, 0.0, 0.0, -1.38, -1.25, -1.25, -3.01, -3.68, -6.9, -8.1, -7.44, -12.43, -12.43, -12.43, -12.08, -12.08, -12.08, -12.11, -12.11, -12.11, -12.11, -11.76, -12.09, -12.09, -11.7, -11.7, -11.7, -11.25, -10.95, -10.47, -10.18, -9.39, -8.83, -8.57, -8.4, -7.73, -6.78, -5.99, -5.14, -4.52, -3.47, -2.35, -1.15, -1.3, 0.0, 0.0, 0.0, 0.0, 0.0, 0.0, 0.0, 0.0, 2.13, 2.13, 2.06, 3.96, 4.24, 3.68, 3.53, 3.39, 3.39, 3.98, 4.6, 4.6, 4.6, 4.4, 5.21, 5.21, 6.32, 6.32, 6.64, 7.51, 8.4, 9.6, 9.83, 9.83, 10.28, 9.83, 9.6, 9.2, 10.84, 11.62, 11.62, 12.96, 13.86, 15.65, 17.11, 21.49, 12.19, 0.0, 0.0, 0.0, 0.0, 3.3, 2.65, 2.65, 1.38, 0.0, 0.0, 0.0, -1.19, -2.35, -2.18, -2.28, -2.72, -2.91, -4.55, -7.19, -7.19, -12.43, -12.43, -12.43, -12.08, -12.08, -11.77, -12.11, -12.11, -12.11, -11.76, -12.09, -12.09, -12.09, -11.7, -11.7, -10.83, -10.83, -10.54, -10.05, -9.67, -9.39, -8.83, -7.98, -7.98, -7.32, -6.99, -5.99, -5.14, -4.21, -3.22, -2.18, -1.19, -1.19, -1.3, 0.0, 0.0, 0.0, 0.0, 0.0, 0.0, 0.0, 0.0, 2.13, 2.13, 2.13, 1.83, 3.82, 3.39, 3.25, 3.25, 4.6, 4.4, 5.06, 5.06, 3.49, 4.2, 5.36, 6.32, 6.32, 6.32, 7.51, 6.32, 7.07, 9.83, 9.83, 9.83, 10.28, 10.28, 9.97, 10.84, 11.62, 11.18, 11.6, 11.2, -0.0, 0.0, 0.0, 0.0, 8.91, 11.37, 11.53, 9.92, 7.75, 5.47, 4.49, 2.52, 0.0, -1.42, -2.64, -2.35, -2.18, -2.18, -2.28, -2.4, -3.73, -5.27, -5.27, -5.27, -12.07, -12.07, -12.43, -12.08, -11.77, -11.77, -12.11, -12.11, -11.76, -11.76, -12.09, -12.09, -11.7, -11.7, -11.7, -10.83, -10.54, -10.05, -10.05, -8.99, -8.43, -7.59, -7.98, -7.32, -6.6, -6.6, -5.63, -4.81, -4.21, -3.22, -3.22, -2.18, -2.35, -1.19, -1.25, -1.3, -1.42, 0.0, 0.0, 0.0, 0.0, 0.0, 0.0, 0.0, 1.83, 1.83, 2.06, 3.68, 3.39, 3.25, 4.4, 4.4, 2.97, 3.49, 3.49, 3.32, 4.0, 5.1, 5.1, 5.36, 5.36, 5.36, 6.32, 9.6, 9.83, 9.83, 10.28, 10.73, 9.97, 10.84, 10.84, 9.6, 9.67, 11.6, 0.0, -10.75, -3.51, 0.0, 10.54, 16.36, 14.91, 13.92, 11.72, 7.94, 5.55, 3.33, 1.2, 0.0, -3.1, -4.11, -2.48, -2.48, -2.48, -3.53, -4.1, -4.43, -4.43, -4.43, -12.07, -12.07, -11.73, -12.08, -11.77, -11.77, -11.41, -11.06, -11.38, -11.38, -11.76, -11.38, -11.7, -11.38, -11.38, -10.95, -10.54, -9.77, -9.77, -8.43, -8.18, -7.59, -6.94, -6.94, -6.24, -5.31, -5.63, -4.81, -3.93, -3.93, -3.22, -3.22, -2.35, -2.35, -2.56, -1.3, -1.42, -1.58, 0.0, 0.0, 0.0, 0.0, 0.0, 0.0, 0.0, 0.0, 2.06, 1.98, 1.91, 1.84, 3.25, 3.11, 1.62, 1.84, 1.84, 3.15, 3.8, 3.6, 3.6, 5.1, 5.1, 5.36, 5.36, 6.01, 7.59, 9.83, 9.83, 8.91, 9.2, 9.6, 10.4, 8.55, 7.9, 8.85, 0.0, 0.0, 0.0, 2.27, 8.47, 15.51, 19.41, 16.75, 12.08, 8.19, 5.68, 4.61, 3.33, 1.34, -3.3, -5.46, -4.52, -3.96, -3.73, -4.43, -4.1, -4.28, -4.28, -4.28, -12.07, -12.07, -11.73, -11.44, -11.77, -11.09, -11.06, -11.06, -11.06, -11.38, -10.98, -10.98, -11.38, -11.38, -10.95, -10.65, -10.25, -9.77, -9.49, -8.99, -8.43, -7.59, -6.94, -6.94, -6.05, -6.05, -5.31, -4.81, -4.81, -3.93, -4.21, -3.22, -3.47, -2.35, -2.56, -2.56, -1.42, -1.42, 0.0, 0.0, 0.0, 0.0, 0.0, 0.0, 0.0, 0.0, 0.0, 0.0, 0.0, 0.0, 1.84, 1.76, 1.69, 1.93, 1.93, 1.75, 3.32, 3.8, 3.6, 3.6, 5.1, 5.1, 5.36, 5.63, 7.44, 10.28, 9.83, 8.94, 8.18, 8.23, 8.55, 7.59, 5.2, 8.85, 0.0, 0.0, 0.0, 2.28, 8.0, 11.8, 17.14, 17.93, 11.47, 8.26, 6.99, 4.66, 2.27, 2.47, 0.0, -8.18, -4.98, -3.32, -3.96, -4.65, -4.65, -4.48, -4.48, -4.48, -11.73, -11.73, -11.44, -11.44, -11.44, -10.75, -10.75, -11.06, -11.06, -10.68, -10.68, -10.68, -10.68, -10.25, -10.25, -10.25, -10.25, -9.49, -9.49, -8.99, -8.43, -7.59, -7.36, -6.73, -6.05, -6.05, -5.31, -5.63, -4.81, -5.14, -4.21, -4.21, -3.47, -3.47, -2.35, -2.56, -1.3, -1.42, -1.42, 0.0, 0.0, 0.0, 0.0, 0.0, 0.0, 0.0, 0.0, 0.0, 0.0, 0.0, 0.0, 0.0, 0.0, 1.69, 1.93, 1.93, 3.32, 3.15, 3.6, 3.6, 3.6, 5.1, 5.1, 5.36, 6.32, 6.95, 9.39, 9.39, 8.8, 6.95, 7.27, 7.9, 8.22, 0.0, 0.0, 0.0, 4.52, 5.64, 8.93, 11.7, 13.28, 14.38, 12.99, 12.34, 9.9, 4.88, 1.27, 1.56, 0.0, -5.8, -3.96, -2.45, -3.82, -4.75, -5.4, -4.75, -4.75, -4.75, -11.73, -11.73, -11.44, -11.1, -11.44, -10.75, -10.75, -10.75, -10.37, -10.68, -10.68, -10.68, -10.25, -10.25, -10.25, -9.95, -9.49, -9.49, -9.49, -8.99, -8.72, -7.59, -7.36, -6.73, -6.73, -6.05, -6.4, -5.63, -5.63, -5.14, -5.14, -4.21, -3.47, -3.47, -2.35, -2.35, -1.3, -1.3, -1.38, -1.38, 0.0, 0.0, 0.0, 0.0, 0.0, 0.0, 0.0, 0.0, 0.0, 0.0, 0.0, 0.0, 0.0, 0.0, 1.69, 1.93, 1.84, 3.32, 3.15, 3.6, 3.4, 3.6, 3.8, 5.36, 6.32, 9.2, 10.28, 9.83, 9.83, 8.18, 8.55, 9.6, 11.62, 12.07, 12.52, 9.48, 9.8, 10.12, 10.43, 13.02, 13.46, 14.22, 16.88, 17.4, 10.75, 2.84, 0.0, 0.0, 0.0, 0.0, -3.96, -3.82, -2.82, -5.0, -5.75, -3.98, -3.98, -3.98, -11.1, -11.1, -11.1, -11.1, -11.1, -10.43, -10.43, -10.75, -10.37, -10.37, -10.37, -9.95, -9.95, -9.95, -9.95, -9.95, -9.49, -9.49, -9.49, -8.72, -8.72, -7.93, -7.36, -6.73, -6.73, -6.4, -6.4, -5.63, -5.63, -5.14, -5.14, -4.34, -3.32, -3.58, -2.35, -2.35, -2.35, -1.25, -1.25, -1.33, -1.33, -1.43, 0.0, 0.0, 0.0, 0.0, 0.0, 0.0, 0.0, 0.0, 0.0, 0.0, 0.0, 0.0, 0.0, 2.02, 1.93, 1.84, 1.67, 2.99, 3.6, 3.4, 3.6, 5.1, 6.01, 8.0, 9.83, 9.83, 9.83, 9.83, 9.33, 7.27, 11.18, 12.07, 12.52, 12.96, 11.99, 11.16, 12.79, 13.99, 13.99, 13.46, 15.88, 15.64, 7.61, 0.0, 0.0, 0.0, 5.2, 0.0, 0.0, -3.68, -3.39, -3.39, -4.6, -4.4, -4.4, -4.4, -11.1, -11.1, -11.1, -11.1, -10.43, -10.43, -10.43, -10.07, -10.07, -10.37, -9.95, -9.95, -9.95, -9.95, -9.95, -9.77, -9.49, -9.49, -8.72, -8.72, -7.93, -7.93, -7.36, -6.73, -6.73, -6.4, -6.4, -5.63, -5.63, -4.81, -5.3, -4.34, -4.34, -3.32, -3.22, -2.35, -2.35, -2.28, -1.25, -1.21, -1.33, -1.43, -1.43, -1.38, -1.38, -1.55, 0.0, 0.0, 0.0, 0.0, 0.0, 0.0, 0.0, 0.0, 0.0, 0.0, 1.93, 1.84, 1.75, 1.67, 3.6, 3.4, 3.4, 3.6, 5.69, 8.0, 9.39, 10.28, 10.28, 10.28, 10.28, -0.0, -0.0, 11.18, 12.07, 12.52, 12.96, 12.96, 13.86, 14.47, 13.7, 13.99, 13.02, 7.63, 0.0, -4.27, -10.75, -0.0, 0.0, 0.0, 0.0, -3.68, -7.9, -7.59, -3.25, -3.11, -3.11, -3.11, -11.1, -10.77, -10.77, -10.12, -10.12, -10.12, -10.12, -10.07, -10.07, -10.07, -9.66, -9.3, -9.58, -9.87, -9.39, -9.49, -9.49, -8.72, -8.72, -8.46, -7.93, -7.93, -7.36, -6.73, -6.73, -6.05, -6.05, -5.63, -5.81, -4.96, -4.96, -4.05, -4.34, -3.32, -3.22, -3.47, -2.35, -2.28, -2.48, -2.4, -1.33, -1.29, -1.43, -1.38, -1.38, -1.5, -1.5, 0.0, 0.0, 0.0, 0.0, 0.0, 0.0, 0.0, 0.0, 0.0, 0.0, 0.0, 1.75, 1.75, 1.67, 1.95, 3.4, 3.4, 4.22, 5.06, 9.39, 9.39, 9.83, 10.28, 10.73, 0.0, -0.0, -6.95, 0.0, 0.0, 12.52, 12.96, 13.41, 13.86, 14.3, 13.28, 11.44, 2.11, -4.74, -3.92, 0.0, -0.0, -11.18, -2.71, -2.19, -5.0, -9.67, -10.0, -7.59, -4.4, -4.4, -4.4, -10.44, -10.44, -10.44, -10.12, -10.12, -10.12, -10.12, -9.76, -9.76, -10.07, -10.01, -9.58, -9.87, -9.58, -9.12, -9.12, -9.22, -8.72, -8.46, -7.93, -7.93, -7.93, -7.36, -6.73, -6.73, -6.05, -6.05, -5.48, -5.81, -4.96, -4.96, -4.05, -4.34, -4.34, -3.22, -3.22, -3.36, -2.28, -2.4, -2.4, -2.54, -2.54, -2.45, -1.38, -1.38, -1.5, -1.5, -1.5, 0.0, 0.0, 0.0, 0.0, 0.0, 0.0, 0.0, 0.0, 0.0, 0.0, 0.0, 1.75, 1.67, 1.95, 1.95, 1.84, 4.22, 5.37, 6.64, 0.0, -0.0, -0.0, 0.0, 0.0, 0.0, -0.0, -10.28, 0.0, 0.0, 12.52, 11.6, 12.3, 13.41, 13.59, 11.8, 0.0, -1.63, 0.0, 12.96, 14.75, -10.8, -8.53, -5.2, -6.67, -9.67, -11.62, -10.73, -10.28, -10.28, -10.28, -10.11, -10.11, -9.8, -9.8, -10.12, -10.12, -10.12, -9.76, -10.07, -10.37, -9.58, -9.58, -9.58, -9.58, -9.12, -8.85, -8.85, -8.36, -8.1, -7.58, -7.58, -7.58, -7.36, -6.73, -6.73, -6.24, -6.24, -5.48, -5.48, -5.81, -4.96, -4.96, -4.05, -4.21, -4.21, -3.22, -3.36, -3.36, -2.4, -2.4, -2.32, -2.54, -2.45, -2.72, -1.38, -1.5, -1.5, -1.5, -1.5, -1.5, -1.71, 0.0, 0.0, 0.0, 0.0, 0.0, 0.0, 0.0, 0.0, 0.0, 0.0, 1.95, 1.84, 1.84, 2.4, 2.4, 3.4, 0.0, -7.27, -4.6, -7.27, -7.27, -0.0, -0.0, 0.0, 0.0, 0.0, 12.07, 11.2, 11.87, 12.58, 13.86, 7.22, 4.34, 4.41, 9.8, 16.91, 13.41, -8.53, -10.4, -7.9, -6.71, -11.18, -7.9, -10.73, -10.28, -10.28, -10.28, -10.11, -10.11, -9.8, -9.8, -9.8, -10.12, -9.76, -10.07, -10.07, -9.71, -9.3, -9.58, -9.3, -9.3, -8.85, -8.85, -8.85, -8.36, -8.36, -8.1, -7.82, -7.82, -7.23, -6.94, -6.94, -6.94, -6.43, -6.43, -5.48, -5.81, -5.81, -4.96, -4.81, -4.21, -4.21, -4.08, -3.36, -3.36, -3.53, -3.53, -2.32, -2.54, -2.45, -2.72, -2.72, -1.33, -1.5, -1.5, -1.5, -1.5, -1.5, -1.71, 0.0, 0.0, 0.0, 0.0, 0.0, 0.0, 0.0, 0.0, 0.0, 0.0, 0.0, 0.0, 0.0, 0.0, 0.0, 0.0, -7.27, -4.8, -7.59, -9.6, -7.59, -0.0, -0.0, 0.0, 0.0, 8.22, 8.85, 8.85, 10.41, 12.72, 10.41, 7.63, 5.35, 18.39, 15.36, 11.84, 10.73, -9.3, -9.58, -11.03, -0.0, -0.0, -10.0, -8.8, -8.8, -8.8, -10.11, -10.11, -9.8, -9.8, -10.12, -10.12, -9.76, -9.76, -9.71, -9.71, -9.3, -9.3, -9.3, -8.85, -8.85, -8.85, -8.85, -8.36, -8.36, -8.36, -7.82, -7.82, -7.23, -7.45, -7.15, -7.15, -7.15, -6.24, -6.24, -5.81, -5.81, -4.81, -4.81, -5.14, -4.21, -4.08, -4.38, -3.25, -3.53, -3.41, -3.41, -2.54, -2.45, -2.72, -2.72, -2.62, -1.33, -1.33, -1.5, -1.5, -1.5, -1.5, -1.64, 0.0, 0.0, 0.0, 0.0, 0.0, 0.0, 0.0, 0.0, 0.0, 0.0, 0.0, 0.0, 0.0, 0.0, 0.0, -6.01, -10.73, -4.8, -4.8, -4.8, -7.27, -7.27, -10.28, -0.0, 5.0, 5.2, 5.4, 3.96, 0.0, 0.0, -6.64, -9.05, -17.39, 12.64, 13.15, 10.96, -7.9, -9.67, -3.68, -0.0, -0.0, -10.0, -7.27, -7.27, -7.27, -10.11, -10.11, -9.8, -9.8, -9.8, -9.48, -9.13, -9.42, -9.42, -9.42, -9.02, -9.02, -9.3, -8.85, -8.85, -8.85, -8.85, -8.61, -8.61, -8.61, -8.06, -8.06, -7.45, -7.45, -7.15, -7.15, -7.15, -6.24, -6.24, -5.81, -5.63, -5.63, -5.14, -5.14, -4.97, -4.38, -4.38, -4.24, -3.53, -3.41, -3.41, -3.73, -2.45, -2.45, -2.72, -2.72, -2.62, -1.33, -1.33, -1.33, -1.5, -1.44, -1.39, 0.0, 0.0, 0.0, 0.0, 0.0, 0.0, 0.0, 0.0, 0.0, 0.0, 0.0, 0.0, 0.0, 0.0, 0.0, -2.69, -10.28, -7.27, -4.8, -7.27, -6.95, -9.83, -9.83, -9.83, -0.0, -0.0, -0.0, -0.0, -9.8, -14.84, -13.59, -16.2, -22.17, -0.0, 13.26, 10.79, 2.71, -1.91, -1.91, -0.0, -8.22, -7.9, -6.2, -6.2, -6.2, -10.11, -10.11, -9.8, -9.8, -9.48, -9.48, -9.13, -9.13, -9.13, -9.02, -9.02, -9.3, -9.3, -8.85, -9.12, -9.12, -8.61, -8.61, -8.61, -8.61, -8.06, -8.06, -7.45, -7.45, -6.94, -7.15, -6.94, -6.24, -6.4, -6.4, -5.63, -5.63, -5.99, -4.97, -4.97, -5.33, -4.24, -4.24, -4.58, -3.41, -3.41, -3.41, -3.6, -2.45, -2.45, -2.45, -2.62, -1.33, -1.33, -1.33, -1.33, -1.44, -1.39, 0.0, 0.0, 0.0, 0.0, 0.0, 0.0, 0.0, 0.0, 0.0, 0.0, 0.0, 0.0, 0.0, 0.0, 0.0, 0.0, -4.6, -10.28, -10.28, -8.8, -9.39, -9.39, 0.0, 0.0, 0.0, 0.0, 0.0, -0.0, -9.48, -13.99, -12.33, -11.75, -16.11, -17.48, -0.0, 9.66, 7.69, -0.0, -4.1, -7.78, -10.79, -6.94, -6.94, -6.94, -6.94, -9.48, -9.48, -9.48, -9.8, -9.48, -9.13, -9.13, -9.13, -9.13, -9.02, -9.02, -9.3, -9.3, -9.12, -9.12, -9.12, -8.61, -8.61, -8.61, -8.61, -8.06, -7.82, -8.06, -7.45, -6.94, -6.94, -6.94, -6.73, -6.4, -6.4, -6.4, -5.99, -5.99, -5.81, -4.97, -5.16, -5.16, -4.24, -4.43, -4.43, -3.41, -3.41, -3.73, -2.45, -2.45, -2.45, -2.37, -2.37, -1.33, -1.33, -1.28, -1.39, -1.39, -1.33, -1.33, 0.0, 0.0, 0.0, 0.0, 0.0, 0.0, 0.0, 0.0, 0.0, 0.0, 0.0, 0.0, 0.0, 0.0, -2.17, -4.2, -11.18, -10.28, -9.39, -9.39, 0.0, 0.0, 0.0, 0.0, 0.0, 0.0, -13.41, -13.19, -8.51, -9.26, -9.47, -9.08, -10.91, -0.0, -0.0, -0.0, -5.48, -8.38, -9.48, -7.78, -7.19, -7.19, -7.19, -9.48, -9.48, -9.48, -9.48, -9.17, -9.13, -9.13, -9.13, -9.13, -9.02, -9.02, -9.3, -8.85, -9.12, -9.12, -9.12, -8.61, -8.61, -8.61, -8.61, -7.82, -7.82, -8.06, -7.45, -7.59, -6.94, -6.73, -6.73, -6.4, -6.4, -6.4, -5.99, -5.81, -5.81, -4.97, -5.16, -5.16, -4.1, -4.1, -4.43, -3.41, -3.41, -3.41, -2.32, -2.45, -2.45, -2.37, -2.37, -2.37, -1.2, -1.28, -1.23, -1.23, -1.18, -1.28, -1.28, -1.28, -1.22, -1.16, -1.26, 0.0, 0.0, 0.0, 0.0, 0.0, 0.0, 0.0, -2.17, 0.0, -2.17, -2.28, -7.9, -10.28, -10.73, -9.39, -9.83, -9.83, 0.0, 0.0, 0.0, 0.0, -12.96, -11.9, -8.05, -6.04, -6.72, -3.6, -4.03, -6.97, -18.78, -5.65, -6.14, -7.59, -9.17, -9.17, -11.6, -11.6, -11.6, -9.48, -9.48, -9.48, -9.17, -9.17, -8.83, -8.83, -9.13, -9.13, -9.02, -9.02, -9.3, -8.85, -8.85, -8.85, -8.85, -8.36, -8.36, -8.36, -8.36, -7.82, -7.82, -7.82, -7.59, -7.59, -6.73, -6.73, -7.1, -7.1, -6.4, -6.4, -6.57, -5.81, -5.81, -5.62, -5.16, -5.16, -4.1, -4.1, -4.43, -3.41, -3.41, -3.41, -3.29, -2.24, -2.45, -2.37, -2.37, -2.37, -2.28, -1.28, -1.23, -1.23, -1.18, -1.18, -1.14, -1.28, -1.22, -1.16, -1.16, -1.26, -1.2, -1.2, 0.0, 0.0, 0.0, -1.47, -1.75, -1.75, -1.75, -1.84, -4.2, -6.64, -8.22, -9.39, -8.8, -8.8, 0.0, 0.0, 0.0, 0.0, -11.6, -11.53, -7.59, -5.94, -4.12, -1.85, -1.74, -1.86, -5.53, -10.66, -15.59, -11.38, -12.79, -12.96, 0.0, 0.0, 0.0, -9.48, -9.48, -9.48, -9.17, -9.17, -8.83, -8.83, -9.13, -9.13, -9.02, -9.02, -9.3, -8.85, -8.85, -8.85, -8.85, -8.36, -8.36, -8.36, -8.36, -7.82, -7.82, -7.82, -7.59, -7.59, -6.73, -6.73, -7.1, -7.1, -6.4, -6.4, -6.57, -5.81, -5.81, -5.62, -5.16, -5.16, -4.1, -4.1, -4.43, -3.41, -3.41, -3.41, -3.29, -2.24, -2.45, -2.37, -2.37, -2.37, -2.28, -1.28, -1.23, -1.23, -1.18, -1.18, -1.14, -1.28, -1.22, -1.16, -1.16, -1.26, -1.2, -1.2, 0.0, 0.0, 0.0, -1.47, -1.75, -1.75, -1.75, -1.84, -4.2, -6.64, -8.22, -9.39, -8.8, -6.95, 0.0, 0.0, 0.0, 0.0, -5.6, -9.48, -7.36, -5.09, -3.31, -1.82, -1.61, 0.0, 0.0, 0.0, 0.0, 0.0, 0.0, 0.0, 0.0, 0.0, 0.0]}]